Wetterdaten: Sonntag, 25.10.2020
Datum Zeit Temp. Aussen Temp. o. S. Temp +5cm Feuchte Auss Luftdruck Regen Sonnenschein Regendauer Solar Windben Empfang
25.10.2020 00:00 13,8 C 13,3 C 12,2 C 91 % 1007,5 hPa 0,0 l/m 0 min 0 min 0 W/m 3,2 km/h (1 Bft) 97,56 %
25.10.2020 00:02 13,8 C 13,3 C 12,2 C 91 % 1007,5 hPa 0,0 l/m 0 min 0 min 0 W/m 6,4 km/h (2 Bft) 97,67 %
25.10.2020 00:04 13,8 C 13,3 C 12,2 C 91 % 1007,5 hPa 0,0 l/m 0 min 0 min 0 W/m 3,2 km/h (1 Bft) 100,00 %
25.10.2020 00:08 13,8 C 13,3 C 12,2 C 91 % 1007,4 hPa 0,0 l/m 0 min 0 min 0 W/m 3,2 km/h (1 Bft) 100,00 %
25.10.2020 00:10 13,8 C 13,3 C 12,2 C 91 % 1007,3 hPa 0,0 l/m 0 min 0 min 0 W/m 6,4 km/h (2 Bft) 100,00 %
25.10.2020 00:12 13,8 C 13,3 C 12,2 C 91 % 1007,3 hPa 0,0 l/m 0 min 0 min 0 W/m 12,9 km/h (3 Bft) 100,00 %
25.10.2020 00:14 13,8 C 13,9 C 12,8 C 91 % 1007,3 hPa 0,0 l/m 0 min 0 min 0 W/m 16,1 km/h (3 Bft) 100,00 %
25.10.2020 00:16 13,9 C 13,9 C 12,8 C 91 % 1007,3 hPa 0,0 l/m 0 min 0 min 0 W/m 22,5 km/h (4 Bft) 100,00 %
25.10.2020 00:18 13,9 C 13,9 C 12,8 C 91 % 1007,3 hPa 0,0 l/m 0 min 0 min 0 W/m 19,3 km/h (3 Bft) 100,00 %
25.10.2020 00:20 13,9 C 13,9 C 12,8 C 91 % 1007,3 hPa 0,0 l/m 0 min 0 min 0 W/m 0,0 km/h (0 Bft) 100,00 %
25.10.2020 00:22 14,0 C 13,9 C 12,8 C 91 % 1007,3 hPa 0,0 l/m 0 min 0 min 0 W/m 16,1 km/h (3 Bft) 97,92 %
25.10.2020 00:24 14,0 C 13,9 C 12,8 C 90 % 1007,3 hPa 0,0 l/m 0 min 0 min 0 W/m 19,3 km/h (3 Bft) 97,87 %
25.10.2020 00:26 14,1 C 14,4 C 12,8 C 90 % 1007,3 hPa 0,0 l/m 0 min 0 min 0 W/m 19,3 km/h (3 Bft) 97,87 %
25.10.2020 00:28 14,2 C 14,4 C 13,4 C 90 % 1007,3 hPa 0,0 l/m 0 min 0 min 0 W/m 16,1 km/h (3 Bft) 100,00 %
25.10.2020 00:30 14,2 C 14,4 C 13,4 C 89 % 1007,3 hPa 0,0 l/m 0 min 0 min 0 W/m 22,5 km/h (4 Bft) 100,00 %
25.10.2020 00:32 14,2 C 14,4 C 13,4 C 89 % 1007,3 hPa 0,0 l/m 0 min 0 min 0 W/m 32,2 km/h (5 Bft) 100,00 %
25.10.2020 00:34 14,2 C 14,4 C 13,4 C 89 % 1007,4 hPa 0,0 l/m 0 min 0 min 0 W/m 19,3 km/h (3 Bft) 97,87 %
25.10.2020 00:36 14,4 C 14,4 C 13,4 C 89 % 1007,3 hPa 0,0 l/m 0 min 0 min 0 W/m 19,3 km/h (3 Bft) 97,92 %
25.10.2020 00:38 14,4 C 14,4 C 13,4 C 88 % 1007,3 hPa 0,0 l/m 0 min 0 min 0 W/m 12,9 km/h (3 Bft) 100,00 %
25.10.2020 00:40 14,5 C 14,4 C 13,4 C 88 % 1007,3 hPa 0,0 l/m 0 min 0 min 0 W/m 0,0 km/h (0 Bft) 100,00 %
25.10.2020 00:42 14,5 C 14,4 C 13,4 C 88 % 1007,2 hPa 0,0 l/m 0 min 0 min 0 W/m 19,3 km/h (3 Bft) 97,83 %
25.10.2020 00:44 14,6 C 14,4 C 13,4 C 88 % 1007,2 hPa 0,0 l/m 0 min 0 min 0 W/m 25,7 km/h (4 Bft) 100,00 %
25.10.2020 00:46 14,6 C 14,4 C 13,4 C 87 % 1007,2 hPa 0,0 l/m 0 min 0 min 0 W/m 25,7 km/h (4 Bft) 100,00 %
25.10.2020 00:48 14,7 C 14,4 C 13,4 C 87 % 1007,3 hPa 0,0 l/m 0 min 0 min 0 W/m 19,3 km/h (3 Bft) 100,00 %
25.10.2020 00:50 14,8 C 14,4 C 13,4 C 87 % 1007,2 hPa 0,0 l/m 0 min 0 min 0 W/m 6,4 km/h (2 Bft) 100,00 %
25.10.2020 00:52 14,8 C 14,4 C 13,4 C 87 % 1007,3 hPa 0,0 l/m 0 min 0 min 0 W/m 25,7 km/h (4 Bft) 97,87 %
25.10.2020 00:54 14,8 C 14,4 C 13,4 C 86 % 1007,2 hPa 0,0 l/m 0 min 0 min 0 W/m 29,0 km/h (5 Bft) 100,00 %
25.10.2020 00:56 14,9 C 14,4 C 13,4 C 86 % 1007,2 hPa 0,0 l/m 0 min 0 min 0 W/m 29,0 km/h (5 Bft) 97,87 %
25.10.2020 00:58 14,9 C 14,4 C 13,4 C 86 % 1007,2 hPa 0,0 l/m 0 min 0 min 0 W/m 25,7 km/h (4 Bft) 97,62 %
25.10.2020 01:00 14,9 C 14,4 C 13,4 C 86 % 1007,2 hPa 0,0 l/m 0 min 0 min 0 W/m 25,7 km/h (4 Bft) 95,83 %
25.10.2020 01:02 15,0 C 14,4 C 13,4 C 86 % 1007,1 hPa 0,0 l/m 0 min 0 min 0 W/m 19,3 km/h (3 Bft) 98,00 %
25.10.2020 01:04 15,0 C 14,4 C 13,4 C 86 % 1007,0 hPa 0,0 l/m 0 min 0 min 0 W/m 22,5 km/h (4 Bft) 97,92 %
25.10.2020 01:06 15,0 C 14,4 C 13,4 C 85 % 1007,0 hPa 0,0 l/m 0 min 0 min 0 W/m 32,2 km/h (5 Bft) 95,74 %
25.10.2020 01:08 15,0 C 14,4 C 13,4 C 85 % 1007,0 hPa 0,0 l/m 0 min 0 min 0 W/m 35,4 km/h (5 Bft) 95,74 %
25.10.2020 01:10 15,1 C 14,4 C 13,4 C 85 % 1007,0 hPa 0,0 l/m 0 min 0 min 0 W/m 32,2 km/h (5 Bft) 100,00 %
25.10.2020 01:12 15,1 C 15,0 C 13,9 C 85 % 1007,0 hPa 0,0 l/m 0 min 0 min 0 W/m 25,7 km/h (4 Bft) 97,87 %
25.10.2020 01:14 15,1 C 15,0 C 13,9 C 85 % 1007,0 hPa 0,0 l/m 0 min 0 min 0 W/m 19,3 km/h (3 Bft) 97,92 %
25.10.2020 01:16 15,2 C 14,4 C 13,4 C 85 % 1007,0 hPa 0,0 l/m 0 min 0 min 0 W/m 16,1 km/h (3 Bft) 95,83 %
25.10.2020 01:18 15,2 C 14,4 C 13,4 C 85 % 1006,9 hPa 0,0 l/m 0 min 0 min 0 W/m 29,0 km/h (5 Bft) 95,74 %
25.10.2020 01:20 15,2 C 14,4 C 13,4 C 85 % 1006,9 hPa 0,0 l/m 0 min 0 min 0 W/m 19,3 km/h (3 Bft) 97,92 %
25.10.2020 01:22 15,3 C 14,4 C 13,4 C 84 % 1007,0 hPa 0,0 l/m 0 min 0 min 0 W/m 19,3 km/h (3 Bft) 97,92 %
25.10.2020 01:24 15,3 C 14,4 C 13,4 C 84 % 1006,9 hPa 0,0 l/m 0 min 0 min 0 W/m 6,4 km/h (2 Bft) 97,87 %
25.10.2020 01:26 15,3 C 14,4 C 13,4 C 84 % 1006,9 hPa 0,0 l/m 0 min 0 min 0 W/m 22,5 km/h (4 Bft) 97,83 %
25.10.2020 01:28 15,3 C 14,4 C 13,4 C 84 % 1006,7 hPa 0,0 l/m 0 min 0 min 0 W/m 6,4 km/h (2 Bft) 100,00 %
25.10.2020 01:30 15,3 C 14,4 C 13,4 C 84 % 1006,9 hPa 0,0 l/m 0 min 0 min 0 W/m 35,4 km/h (5 Bft) 95,74 %
25.10.2020 01:32 15,3 C 14,4 C 13,4 C 84 % 1006,9 hPa 0,0 l/m 0 min 0 min 0 W/m 3,2 km/h (1 Bft) 95,74 %
25.10.2020 01:34 15,3 C 15,0 C 13,4 C 84 % 1006,8 hPa 0,0 l/m 0 min 0 min 0 W/m 25,7 km/h (4 Bft) 91,49 %
25.10.2020 01:36 15,3 C 15,0 C 13,4 C 84 % 1006,9 hPa 0,0 l/m 0 min 0 min 0 W/m 45,1 km/h (6 Bft) 97,87 %
25.10.2020 01:38 15,3 C 15,0 C 13,9 C 84 % 1006,8 hPa 0,0 l/m 0 min 0 min 0 W/m 35,4 km/h (5 Bft) 95,74 %
25.10.2020 01:40 15,4 C 15,0 C 13,9 C 83 % 1006,9 hPa 0,0 l/m 0 min 0 min 0 W/m 22,5 km/h (4 Bft) 97,87 %
25.10.2020 01:42 15,4 C 15,0 C 13,9 C 83 % 1006,9 hPa 0,0 l/m 0 min 0 min 0 W/m 32,2 km/h (5 Bft) 92,68 %
25.10.2020 01:44 15,4 C 15,0 C 13,9 C 83 % 1006,9 hPa 0,0 l/m 0 min 0 min 0 W/m 25,7 km/h (4 Bft) 95,74 %
25.10.2020 01:46 15,4 C 15,0 C 13,9 C 83 % 1006,7 hPa 0,0 l/m 0 min 0 min 0 W/m 38,6 km/h (5 Bft) 97,92 %
25.10.2020 01:48 15,4 C 15,0 C 13,9 C 83 % 1006,8 hPa 0,0 l/m 0 min 0 min 0 W/m 38,6 km/h (5 Bft) 55,32 %
25.10.2020 01:50 15,5 C 15,0 C 13,9 C 83 % 1006,7 hPa 0,0 l/m 0 min 0 min 0 W/m 35,4 km/h (5 Bft) 95,83 %
25.10.2020 01:52 15,5 C 15,0 C 13,9 C 83 % 1006,8 hPa 0,0 l/m 0 min 0 min 0 W/m 22,5 km/h (4 Bft) 95,74 %
25.10.2020 01:54 15,5 C 15,0 C 13,9 C 83 % 1006,8 hPa 0,0 l/m 0 min 0 min 0 W/m 25,7 km/h (4 Bft) 97,87 %
25.10.2020 01:56 15,5 C 15,0 C 13,4 C 83 % 1006,7 hPa 0,0 l/m 0 min 0 min 0 W/m 32,2 km/h (5 Bft) 97,92 %
25.10.2020 01:58 15,5 C 15,0 C 13,9 C 83 % 1006,7 hPa 0,0 l/m 0 min 0 min 0 W/m 19,3 km/h (3 Bft) 97,92 %
25.10.2020 02:00 15,5 C 15,0 C 13,4 C 83 % 1006,7 hPa 0,0 l/m 0 min 0 min 0 W/m 25,7 km/h (4 Bft) 95,65 %
25.10.2020 02:02 15,5 C 15,0 C 13,4 C 83 % 1006,6 hPa 0,0 l/m 0 min 0 min 0 W/m 29,0 km/h (5 Bft) 97,62 %
25.10.2020 02:04 15,5 C 15,0 C 13,9 C 83 % 1006,7 hPa 0,0 l/m 0 min 0 min 0 W/m 45,1 km/h (6 Bft) 97,87 %
25.10.2020 02:06 15,5 C 15,0 C 13,9 C 83 % 1006,5 hPa 0,0 l/m 0 min 0 min 0 W/m 25,7 km/h (4 Bft) 97,83 %
25.10.2020 02:08 15,5 C 15,0 C 13,9 C 83 % 1006,6 hPa 0,0 l/m 0 min 0 min 0 W/m 35,4 km/h (5 Bft) 97,87 %
25.10.2020 02:10 15,5 C 15,0 C 13,4 C 83 % 1006,4 hPa 0,0 l/m 0 min 0 min 0 W/m 22,5 km/h (4 Bft) 95,74 %
25.10.2020 02:12 15,5 C 15,0 C 13,4 C 83 % 1006,5 hPa 0,0 l/m 0 min 0 min 0 W/m 22,5 km/h (4 Bft) 97,96 %
25.10.2020 02:14 15,5 C 15,0 C 13,4 C 83 % 1006,3 hPa 0,0 l/m 0 min 0 min 0 W/m 29,0 km/h (5 Bft) 95,92 %
25.10.2020 02:16 15,5 C 15,0 C 13,4 C 83 % 1006,4 hPa 0,0 l/m 0 min 0 min 0 W/m 22,5 km/h (4 Bft) 95,74 %
25.10.2020 02:18 15,5 C 15,0 C 13,4 C 83 % 1006,4 hPa 0,0 l/m 0 min 0 min 0 W/m 25,7 km/h (4 Bft) 95,83 %
25.10.2020 02:20 15,5 C 15,0 C 13,4 C 83 % 1006,4 hPa 0,0 l/m 0 min 0 min 0 W/m 25,7 km/h (4 Bft) 91,67 %
25.10.2020 02:22 15,5 C 15,0 C 13,4 C 83 % 1006,3 hPa 0,0 l/m 0 min 0 min 0 W/m 22,5 km/h (4 Bft) 95,83 %
25.10.2020 02:24 15,5 C 14,4 C 13,4 C 83 % 1006,4 hPa 0,0 l/m 0 min 0 min 0 W/m 35,4 km/h (5 Bft) 95,65 %
25.10.2020 02:26 15,5 C 14,4 C 13,4 C 83 % 1006,3 hPa 0,0 l/m 0 min 0 min 0 W/m 32,2 km/h (5 Bft) 97,87 %
25.10.2020 02:28 15,5 C 14,4 C 13,4 C 83 % 1006,3 hPa 0,0 l/m 0 min 0 min 0 W/m 29,0 km/h (5 Bft) 93,62 %
25.10.2020 02:30 15,5 C 14,4 C 13,4 C 83 % 1006,3 hPa 0,0 l/m 0 min 0 min 0 W/m 29,0 km/h (5 Bft) 97,87 %
25.10.2020 02:32 15,5 C 14,4 C 13,4 C 83 % 1006,2 hPa 0,0 l/m 0 min 0 min 0 W/m 32,2 km/h (5 Bft) 97,87 %
25.10.2020 02:34 15,5 C 14,4 C 13,4 C 83 % 1006,0 hPa 0,0 l/m 0 min 0 min 0 W/m 32,2 km/h (5 Bft) 97,83 %
25.10.2020 02:36 15,5 C 14,4 C 13,4 C 83 % 1006,0 hPa 0,0 l/m 0 min 0 min 0 W/m 19,3 km/h (3 Bft) 97,62 %
25.10.2020 02:38 15,5 C 14,4 C 13,4 C 83 % 1006,0 hPa 0,0 l/m 0 min 0 min 0 W/m 22,5 km/h (4 Bft) 95,83 %
25.10.2020 02:40 15,4 C 14,4 C 13,4 C 83 % 1006,1 hPa 0,0 l/m 0 min 0 min 0 W/m 29,0 km/h (5 Bft) 97,87 %
25.10.2020 02:42 15,4 C 14,4 C 13,4 C 83 % 1006,0 hPa 0,0 l/m 0 min 0 min 0 W/m 22,5 km/h (4 Bft) 97,92 %
25.10.2020 02:44 15,4 C 14,4 C 13,4 C 83 % 1005,9 hPa 0,0 l/m 0 min 0 min 0 W/m 35,4 km/h (5 Bft) 97,87 %
25.10.2020 02:46 15,4 C 14,4 C 13,4 C 83 % 1005,9 hPa 0,0 l/m 0 min 0 min 0 W/m 25,7 km/h (4 Bft) 95,83 %
25.10.2020 02:48 15,4 C 15,0 C 13,4 C 83 % 1006,0 hPa 0,0 l/m 0 min 0 min 0 W/m 35,4 km/h (5 Bft) 95,83 %
25.10.2020 02:50 15,4 C 15,0 C 13,4 C 83 % 1006,0 hPa 0,0 l/m 0 min 0 min 0 W/m 25,7 km/h (4 Bft) 95,74 %
25.10.2020 02:52 15,4 C 14,4 C 13,4 C 83 % 1005,8 hPa 0,0 l/m 0 min 0 min 0 W/m 25,7 km/h (4 Bft) 97,87 %
25.10.2020 02:54 15,4 C 14,4 C 13,4 C 83 % 1005,8 hPa 0,0 l/m 0 min 0 min 0 W/m 19,3 km/h (3 Bft) 97,87 %
25.10.2020 02:56 15,4 C 14,4 C 13,4 C 83 % 1005,8 hPa 0,0 l/m 0 min 0 min 0 W/m 16,1 km/h (3 Bft) 95,74 %
25.10.2020 02:58 15,4 C 14,4 C 13,4 C 83 % 1005,8 hPa 0,0 l/m 0 min 0 min 0 W/m 32,2 km/h (5 Bft) 97,83 %
25.10.2020 02:00 15,4 C 14,4 C 13,4 C 83 % 1005,8 hPa 0,0 l/m 0 min 0 min 0 W/m 22,5 km/h (4 Bft) 97,87 %
25.10.2020 02:04 15,4 C 14,4 C 13,4 C 83 % 1005,7 hPa 0,0 l/m 0 min 0 min 0 W/m 32,2 km/h (5 Bft) 98,92 %
25.10.2020 02:06 15,4 C 14,4 C 13,4 C 83 % 1005,6 hPa 0,0 l/m 0 min 0 min 0 W/m 12,9 km/h (3 Bft) 100,00 %
25.10.2020 02:08 15,4 C 14,4 C 13,4 C 83 % 1005,6 hPa 0,0 l/m 0 min 0 min 0 W/m 19,3 km/h (3 Bft) 100,00 %
25.10.2020 02:10 15,4 C 14,4 C 13,4 C 83 % 1005,6 hPa 0,0 l/m 0 min 0 min 0 W/m 35,4 km/h (5 Bft) 100,00 %
25.10.2020 02:12 15,4 C 14,4 C 13,4 C 83 % 1005,7 hPa 0,0 l/m 0 min 0 min 0 W/m 16,1 km/h (3 Bft) 100,00 %
25.10.2020 02:14 15,4 C 14,4 C 13,4 C 83 % 1005,7 hPa 0,0 l/m 0 min 0 min 0 W/m 25,7 km/h (4 Bft) 100,00 %
25.10.2020 02:16 15,4 C 14,4 C 13,4 C 83 % 1005,5 hPa 0,0 l/m 0 min 0 min 0 W/m 22,5 km/h (4 Bft) 100,00 %
25.10.2020 02:18 15,4 C 14,4 C 13,4 C 83 % 1005,5 hPa 0,0 l/m 0 min 0 min 0 W/m 41,8 km/h (6 Bft) 100,00 %
25.10.2020 02:20 15,4 C 14,4 C 13,4 C 83 % 1005,4 hPa 0,0 l/m 0 min 0 min 0 W/m 32,2 km/h (5 Bft) 100,00 %
25.10.2020 02:22 15,4 C 14,4 C 13,4 C 83 % 1005,3 hPa 0,0 l/m 0 min 0 min 0 W/m 19,3 km/h (3 Bft) 100,00 %
25.10.2020 02:24 15,3 C 14,4 C 13,4 C 83 % 1005,4 hPa 0,0 l/m 0 min 0 min 0 W/m 22,5 km/h (4 Bft) 100,00 %
25.10.2020 02:26 15,3 C 14,4 C 13,4 C 83 % 1005,3 hPa 0,0 l/m 0 min 0 min 0 W/m 16,1 km/h (3 Bft) 100,00 %
25.10.2020 02:28 15,3 C 14,4 C 13,4 C 83 % 1005,4 hPa 0,0 l/m 0 min 0 min 0 W/m 16,1 km/h (3 Bft) 100,00 %
25.10.2020 02:30 15,3 C 14,4 C 13,4 C 83 % 1005,3 hPa 0,0 l/m 0 min 0 min 0 W/m 22,5 km/h (4 Bft) 100,00 %
25.10.2020 02:32 15,3 C 14,4 C 13,4 C 83 % 1005,3 hPa 0,0 l/m 0 min 0 min 0 W/m 45,1 km/h (6 Bft) 97,96 %
25.10.2020 02:34 15,3 C 14,4 C 13,4 C 83 % 1005,2 hPa 0,0 l/m 0 min 0 min 0 W/m 25,7 km/h (4 Bft) 97,87 %
25.10.2020 02:36 15,3 C 14,4 C 13,4 C 83 % 1005,2 hPa 0,0 l/m 0 min 0 min 0 W/m 22,5 km/h (4 Bft) 95,74 %
25.10.2020 02:38 15,2 C 14,4 C 13,4 C 83 % 1005,3 hPa 0,0 l/m 0 min 0 min 0 W/m 22,5 km/h (4 Bft) 97,92 %
25.10.2020 02:40 15,2 C 14,4 C 13,4 C 83 % 1005,3 hPa 0,0 l/m 0 min 0 min 0 W/m 19,3 km/h (3 Bft) 97,92 %
25.10.2020 02:42 15,2 C 14,4 C 13,4 C 83 % 1005,2 hPa 0,0 l/m 0 min 0 min 0 W/m 29,0 km/h (5 Bft) 97,92 %
25.10.2020 02:44 15,2 C 14,4 C 13,4 C 83 % 1005,2 hPa 0,0 l/m 0 min 0 min 0 W/m 45,1 km/h (6 Bft) 97,87 %
25.10.2020 02:46 15,1 C 14,4 C 13,4 C 83 % 1005,1 hPa 0,0 l/m 0 min 0 min 0 W/m 25,7 km/h (4 Bft) 97,87 %
25.10.2020 02:48 15,2 C 14,4 C 13,4 C 83 % 1005,1 hPa 0,0 l/m 0 min 0 min 0 W/m 16,1 km/h (3 Bft) 97,87 %
25.10.2020 02:50 15,1 C 14,4 C 13,4 C 83 % 1005,2 hPa 0,0 l/m 0 min 0 min 0 W/m 6,4 km/h (2 Bft) 97,87 %
25.10.2020 02:52 15,1 C 14,4 C 13,4 C 83 % 1005,2 hPa 0,0 l/m 0 min 0 min 0 W/m 19,3 km/h (3 Bft) 95,74 %
25.10.2020 02:54 15,1 C 14,4 C 13,4 C 83 % 1005,2 hPa 0,0 l/m 0 min 0 min 0 W/m 19,3 km/h (3 Bft) 97,87 %
25.10.2020 02:56 15,1 C 14,4 C 13,4 C 83 % 1005,1 hPa 0,0 l/m 0 min 0 min 0 W/m 9,7 km/h (2 Bft) 97,83 %
25.10.2020 02:58 15,1 C 14,4 C 13,4 C 83 % 1005,1 hPa 0,0 l/m 0 min 0 min 0 W/m 22,5 km/h (4 Bft) 97,67 %
25.10.2020 03:00 15,1 C 14,4 C 13,4 C 83 % 1005,1 hPa 0,0 l/m 0 min 0 min 0 W/m 32,2 km/h (5 Bft) 97,87 %
25.10.2020 03:02 15,1 C 14,4 C 13,4 C 83 % 1005,1 hPa 0,0 l/m 0 min 0 min 0 W/m 38,6 km/h (5 Bft) 98,00 %
25.10.2020 03:04 15,1 C 14,4 C 13,4 C 83 % 1005,1 hPa 0,0 l/m 0 min 0 min 0 W/m 32,2 km/h (5 Bft) 97,92 %
25.10.2020 03:06 15,1 C 14,4 C 13,4 C 83 % 1005,1 hPa 0,0 l/m 0 min 0 min 0 W/m 19,3 km/h (3 Bft) 97,83 %
25.10.2020 03:08 15,1 C 14,4 C 13,4 C 83 % 1005,1 hPa 0,0 l/m 0 min 0 min 0 W/m 22,5 km/h (4 Bft) 95,74 %
25.10.2020 03:10 15,1 C 14,4 C 13,4 C 83 % 1005,1 hPa 0,0 l/m 0 min 0 min 0 W/m 22,5 km/h (4 Bft) 97,87 %
25.10.2020 03:12 15,1 C 14,4 C 13,4 C 83 % 1005,1 hPa 0,0 l/m 0 min 0 min 0 W/m 12,9 km/h (3 Bft) 97,87 %
25.10.2020 03:14 15,1 C 14,4 C 13,4 C 83 % 1005,0 hPa 0,0 l/m 0 min 0 min 0 W/m 12,9 km/h (3 Bft) 97,87 %
25.10.2020 03:16 15,1 C 14,4 C 13,4 C 83 % 1005,0 hPa 0,0 l/m 0 min 0 min 0 W/m 22,5 km/h (4 Bft) 100,00 %
25.10.2020 03:18 15,1 C 14,4 C 13,4 C 83 % 1005,0 hPa 0,0 l/m 0 min 0 min 0 W/m 22,5 km/h (4 Bft) 100,00 %
25.10.2020 03:20 15,1 C 14,4 C 13,4 C 83 % 1005,0 hPa 0,0 l/m 0 min 0 min 0 W/m 19,3 km/h (3 Bft) 100,00 %
25.10.2020 03:22 15,1 C 14,4 C 13,4 C 83 % 1004,9 hPa 0,0 l/m 0 min 0 min 0 W/m 19,3 km/h (3 Bft) 97,92 %
25.10.2020 03:24 15,1 C 14,4 C 13,4 C 83 % 1004,9 hPa 0,0 l/m 0 min 0 min 0 W/m 16,1 km/h (3 Bft) 97,83 %
25.10.2020 03:26 15,1 C 14,4 C 13,4 C 83 % 1004,9 hPa 0,0 l/m 0 min 0 min 0 W/m 16,1 km/h (3 Bft) 100,00 %
25.10.2020 03:28 15,1 C 14,4 C 13,4 C 84 % 1004,9 hPa 0,0 l/m 0 min 0 min 0 W/m 16,1 km/h (3 Bft) 100,00 %
25.10.2020 03:30 15,1 C 14,4 C 13,4 C 84 % 1004,9 hPa 0,0 l/m 0 min 0 min 0 W/m 12,9 km/h (3 Bft) 97,87 %
25.10.2020 03:32 15,1 C 14,4 C 12,8 C 84 % 1004,9 hPa 0,0 l/m 0 min 0 min 0 W/m 6,4 km/h (2 Bft) 97,92 %
25.10.2020 03:34 15,1 C 14,4 C 12,8 C 84 % 1004,9 hPa 0,0 l/m 0 min 0 min 0 W/m 0,0 km/h (0 Bft) 100,00 %
25.10.2020 03:36 15,1 C 13,9 C 12,8 C 84 % 1004,8 hPa 0,0 l/m 0 min 0 min 0 W/m 0,0 km/h (0 Bft) 100,00 %
25.10.2020 03:38 15,0 C 13,9 C 12,8 C 84 % 1004,8 hPa 0,0 l/m 0 min 0 min 0 W/m 19,3 km/h (3 Bft) 100,00 %
25.10.2020 03:40 15,0 C 13,9 C 12,8 C 84 % 1004,8 hPa 0,0 l/m 0 min 0 min 0 W/m 3,2 km/h (1 Bft) 100,00 %
25.10.2020 03:42 15,0 C 13,9 C 12,8 C 84 % 1004,7 hPa 0,0 l/m 0 min 0 min 0 W/m 0,0 km/h (0 Bft) 100,00 %
25.10.2020 03:44 15,0 C 13,9 C 12,8 C 84 % 1004,7 hPa 0,0 l/m 0 min 0 min 0 W/m 12,9 km/h (3 Bft) 100,00 %
25.10.2020 03:46 15,0 C 13,9 C 12,8 C 84 % 1004,7 hPa 0,0 l/m 0 min 0 min 0 W/m 16,1 km/h (3 Bft) 100,00 %
25.10.2020 03:48 14,9 C 13,9 C 12,8 C 84 % 1004,6 hPa 0,0 l/m 0 min 0 min 0 W/m 16,1 km/h (3 Bft) 100,00 %
25.10.2020 03:50 14,9 C 13,9 C 12,8 C 84 % 1004,6 hPa 0,0 l/m 0 min 0 min 0 W/m 12,9 km/h (3 Bft) 100,00 %
25.10.2020 03:52 14,9 C 13,9 C 12,8 C 84 % 1004,6 hPa 0,0 l/m 0 min 0 min 0 W/m 22,5 km/h (4 Bft) 100,00 %
25.10.2020 03:54 14,9 C 13,9 C 12,8 C 84 % 1004,6 hPa 0,0 l/m 0 min 0 min 0 W/m 22,5 km/h (4 Bft) 100,00 %
25.10.2020 03:56 14,8 C 13,9 C 12,8 C 85 % 1004,5 hPa 0,0 l/m 0 min 0 min 0 W/m 16,1 km/h (3 Bft) 97,92 %
25.10.2020 03:58 14,8 C 13,9 C 12,8 C 85 % 1004,5 hPa 0,0 l/m 0 min 0 min 0 W/m 12,9 km/h (3 Bft) 100,00 %
25.10.2020 04:00 14,8 C 13,9 C 12,8 C 85 % 1004,5 hPa 0,0 l/m 0 min 0 min 0 W/m 3,2 km/h (1 Bft) 100,00 %
25.10.2020 04:02 14,7 C 13,9 C 12,8 C 85 % 1004,5 hPa 0,0 l/m 0 min 0 min 0 W/m 16,1 km/h (3 Bft) 92,86 %
25.10.2020 04:04 14,7 C 13,9 C 12,8 C 85 % 1004,5 hPa 0,0 l/m 0 min 0 min 0 W/m 19,3 km/h (3 Bft) 93,62 %
25.10.2020 04:06 14,6 C 13,9 C 12,8 C 85 % 1004,4 hPa 0,0 l/m 0 min 0 min 0 W/m 22,5 km/h (4 Bft) 95,74 %
25.10.2020 04:08 14,6 C 13,9 C 12,8 C 85 % 1004,5 hPa 0,0 l/m 0 min 0 min 0 W/m 12,9 km/h (3 Bft) 97,56 %
25.10.2020 04:10 14,6 C 13,3 C 12,8 C 85 % 1004,4 hPa 0,0 l/m 0 min 0 min 0 W/m 29,0 km/h (5 Bft) 95,83 %
25.10.2020 04:12 14,6 C 13,3 C 12,2 C 86 % 1004,5 hPa 0,0 l/m 0 min 0 min 0 W/m 16,1 km/h (3 Bft) 97,87 %
25.10.2020 04:14 14,5 C 13,3 C 12,2 C 86 % 1004,4 hPa 0,0 l/m 0 min 0 min 0 W/m 0,0 km/h (0 Bft) 95,74 %
25.10.2020 04:16 14,5 C 13,3 C 12,2 C 86 % 1004,4 hPa 0,0 l/m 0 min 0 min 0 W/m 12,9 km/h (3 Bft) 95,83 %
25.10.2020 04:18 14,5 C 13,3 C 12,2 C 86 % 1004,4 hPa 0,0 l/m 0 min 0 min 0 W/m 0,0 km/h (0 Bft) 97,92 %
25.10.2020 04:20 14,5 C 13,3 C 12,2 C 86 % 1004,4 hPa 0,0 l/m 0 min 0 min 0 W/m 16,1 km/h (3 Bft) 95,65 %
25.10.2020 04:22 14,4 C 13,9 C 12,8 C 86 % 1004,4 hPa 0,0 l/m 0 min 0 min 0 W/m 19,3 km/h (3 Bft) 95,74 %
25.10.2020 04:24 14,4 C 13,9 C 12,8 C 86 % 1004,3 hPa 0,0 l/m 0 min 0 min 0 W/m 3,2 km/h (1 Bft) 95,74 %
25.10.2020 04:26 14,4 C 13,9 C 12,8 C 86 % 1004,3 hPa 0,0 l/m 0 min 0 min 0 W/m 6,4 km/h (2 Bft) 93,62 %
25.10.2020 04:28 14,4 C 13,9 C 12,8 C 86 % 1004,3 hPa 0,0 l/m 0 min 0 min 0 W/m 16,1 km/h (3 Bft) 93,62 %
25.10.2020 04:30 14,4 C 13,9 C 12,8 C 86 % 1004,2 hPa 0,0 l/m 0 min 0 min 0 W/m 6,4 km/h (2 Bft) 95,12 %
25.10.2020 04:32 14,4 C 13,9 C 12,8 C 86 % 1004,3 hPa 0,0 l/m 0 min 0 min 0 W/m 0,0 km/h (0 Bft) 95,92 %
25.10.2020 04:34 14,4 C 13,9 C 12,8 C 86 % 1004,2 hPa 0,0 l/m 0 min 0 min 0 W/m 12,9 km/h (3 Bft) 93,62 %
25.10.2020 04:36 14,4 C 13,9 C 12,8 C 86 % 1004,1 hPa 0,0 l/m 0 min 0 min 0 W/m 19,3 km/h (3 Bft) 93,62 %
25.10.2020 04:38 14,4 C 13,9 C 12,8 C 86 % 1004,0 hPa 0,0 l/m 0 min 0 min 0 W/m 19,3 km/h (3 Bft) 95,83 %
25.10.2020 04:40 14,5 C 13,9 C 12,8 C 86 % 1004,1 hPa 0,0 l/m 0 min 0 min 0 W/m 6,4 km/h (2 Bft) 93,75 %
25.10.2020 04:42 14,5 C 14,4 C 12,8 C 86 % 1004,0 hPa 0,0 l/m 0 min 0 min 0 W/m 16,1 km/h (3 Bft) 95,83 %
25.10.2020 04:44 14,5 C 14,4 C 13,4 C 86 % 1004,0 hPa 0,0 l/m 0 min 0 min 0 W/m 19,3 km/h (3 Bft) 95,74 %
25.10.2020 04:46 14,5 C 14,4 C 12,8 C 85 % 1003,9 hPa 0,0 l/m 0 min 0 min 0 W/m 22,5 km/h (4 Bft) 95,74 %
25.10.2020 04:48 14,5 C 14,4 C 12,8 C 85 % 1003,9 hPa 0,0 l/m 0 min 0 min 0 W/m 16,1 km/h (3 Bft) 97,92 %
25.10.2020 04:50 14,6 C 14,4 C 12,8 C 85 % 1003,9 hPa 0,0 l/m 0 min 0 min 0 W/m 12,9 km/h (3 Bft) 93,62 %
25.10.2020 04:52 14,6 C 14,4 C 12,8 C 85 % 1003,9 hPa 0,0 l/m 0 min 0 min 0 W/m 12,9 km/h (3 Bft) 95,74 %
25.10.2020 04:54 14,6 C 14,4 C 12,8 C 85 % 1003,8 hPa 0,0 l/m 0 min 0 min 0 W/m 22,5 km/h (4 Bft) 93,48 %
25.10.2020 04:56 14,6 C 14,4 C 13,4 C 85 % 1003,8 hPa 0,0 l/m 0 min 0 min 0 W/m 32,2 km/h (5 Bft) 95,74 %
25.10.2020 04:58 14,7 C 14,4 C 13,4 C 85 % 1003,9 hPa 0,0 l/m 0 min 0 min 0 W/m 12,9 km/h (3 Bft) 97,56 %
25.10.2020 05:00 14,7 C 14,4 C 13,4 C 85 % 1003,8 hPa 0,0 l/m 0 min 0 min 0 W/m 19,3 km/h (3 Bft) 97,87 %
25.10.2020 05:02 14,7 C 13,9 C 13,4 C 85 % 1003,8 hPa 0,0 l/m 0 min 0 min 0 W/m 12,9 km/h (3 Bft) 96,00 %
25.10.2020 05:04 14,8 C 13,9 C 12,8 C 85 % 1003,8 hPa 0,0 l/m 0 min 0 min 0 W/m 0,0 km/h (0 Bft) 98,00 %
25.10.2020 05:06 14,8 C 13,9 C 12,8 C 85 % 1003,8 hPa 0,0 l/m 0 min 0 min 0 W/m 0,0 km/h (0 Bft) 100,00 %
25.10.2020 05:08 14,8 C 13,9 C 12,8 C 85 % 1003,8 hPa 0,0 l/m 0 min 0 min 0 W/m 12,9 km/h (3 Bft) 100,00 %
25.10.2020 05:10 14,8 C 13,9 C 12,8 C 85 % 1003,7 hPa 0,0 l/m 0 min 0 min 0 W/m 0,0 km/h (0 Bft) 100,00 %
25.10.2020 05:12 14,8 C 13,9 C 12,8 C 85 % 1003,7 hPa 0,0 l/m 0 min 0 min 0 W/m 16,1 km/h (3 Bft) 95,74 %
25.10.2020 05:14 14,8 C 13,9 C 12,8 C 85 % 1003,7 hPa 0,0 l/m 0 min 0 min 0 W/m 16,1 km/h (3 Bft) 97,87 %
25.10.2020 05:16 14,8 C 13,9 C 12,8 C 85 % 1003,6 hPa 0,0 l/m 0 min 0 min 0 W/m 25,7 km/h (4 Bft) 100,00 %
25.10.2020 05:18 14,8 C 13,9 C 12,8 C 85 % 1003,7 hPa 0,0 l/m 0 min 0 min 0 W/m 22,5 km/h (4 Bft) 97,83 %
25.10.2020 05:20 14,8 C 13,9 C 12,8 C 85 % 1003,7 hPa 0,0 l/m 0 min 0 min 0 W/m 22,5 km/h (4 Bft) 98,00 %
25.10.2020 05:22 14,7 C 13,9 C 12,8 C 85 % 1003,7 hPa 0,0 l/m 0 min 0 min 0 W/m 9,7 km/h (2 Bft) 97,92 %
25.10.2020 05:24 14,8 C 13,9 C 12,8 C 85 % 1003,7 hPa 0,0 l/m 0 min 0 min 0 W/m 16,1 km/h (3 Bft) 97,87 %
25.10.2020 05:26 14,7 C 13,9 C 12,8 C 85 % 1003,7 hPa 0,0 l/m 0 min 0 min 0 W/m 16,1 km/h (3 Bft) 97,92 %
25.10.2020 05:28 14,7 C 13,9 C 12,8 C 84 % 1003,7 hPa 0,0 l/m 0 min 0 min 0 W/m 19,3 km/h (3 Bft) 95,83 %
25.10.2020 05:30 14,7 C 13,9 C 12,8 C 84 % 1003,7 hPa 0,0 l/m 0 min 0 min 0 W/m 16,1 km/h (3 Bft) 97,87 %
25.10.2020 05:32 14,7 C 13,9 C 12,8 C 84 % 1003,7 hPa 0,0 l/m 0 min 0 min 0 W/m 25,7 km/h (4 Bft) 97,30 %
25.10.2020 05:34 14,7 C 13,9 C 12,8 C 84 % 1003,8 hPa 0,0 l/m 0 min 0 min 0 W/m 25,7 km/h (4 Bft) 97,87 %
25.10.2020 05:36 14,7 C 13,9 C 12,8 C 84 % 1003,7 hPa 0,0 l/m 0 min 0 min 0 W/m 16,1 km/h (3 Bft) 95,74 %
25.10.2020 05:38 14,8 C 13,9 C 12,8 C 84 % 1003,6 hPa 0,0 l/m 0 min 0 min 0 W/m 19,3 km/h (3 Bft) 97,87 %
25.10.2020 05:40 14,8 C 13,9 C 12,8 C 84 % 1003,7 hPa 0,0 l/m 0 min 0 min 0 W/m 16,1 km/h (3 Bft) 97,87 %
25.10.2020 05:42 14,8 C 13,9 C 12,8 C 84 % 1003,6 hPa 0,0 l/m 0 min 0 min 0 W/m 16,1 km/h (3 Bft) 97,83 %
25.10.2020 05:44 14,7 C 13,9 C 12,8 C 84 % 1003,6 hPa 0,0 l/m 0 min 0 min 0 W/m 16,1 km/h (3 Bft) 97,87 %
25.10.2020 05:46 14,7 C 13,9 C 12,8 C 84 % 1003,6 hPa 0,0 l/m 0 min 0 min 0 W/m 3,2 km/h (1 Bft) 97,87 %
25.10.2020 05:48 14,8 C 13,9 C 12,8 C 84 % 1003,6 hPa 0,0 l/m 0 min 0 min 0 W/m 0,0 km/h (0 Bft) 95,74 %
25.10.2020 05:50 14,7 C 13,9 C 12,8 C 84 % 1003,5 hPa 0,0 l/m 0 min 0 min 0 W/m 19,3 km/h (3 Bft) 100,00 %
25.10.2020 05:52 14,7 C 13,9 C 12,8 C 84 % 1003,4 hPa 0,0 l/m 0 min 0 min 0 W/m 29,0 km/h (5 Bft) 95,83 %
25.10.2020 05:54 14,7 C 13,9 C 12,8 C 84 % 1003,6 hPa 0,0 l/m 0 min 0 min 0 W/m 19,3 km/h (3 Bft) 95,74 %
25.10.2020 05:56 14,7 C 13,9 C 12,8 C 84 % 1003,4 hPa 0,0 l/m 0 min 0 min 0 W/m 3,2 km/h (1 Bft) 97,92 %
25.10.2020 05:58 14,7 C 13,9 C 12,8 C 84 % 1003,5 hPa 0,0 l/m 0 min 0 min 0 W/m 3,2 km/h (1 Bft) 100,00 %
25.10.2020 06:00 14,7 C 13,9 C 12,8 C 84 % 1003,4 hPa 0,0 l/m 0 min 0 min 0 W/m 25,7 km/h (4 Bft) 100,00 %
25.10.2020 06:02 14,7 C 13,9 C 12,8 C 84 % 1003,4 hPa 0,0 l/m 0 min 0 min 0 W/m 22,5 km/h (4 Bft) 95,74 %
25.10.2020 06:04 14,7 C 13,9 C 12,8 C 84 % 1003,5 hPa 0,0 l/m 0 min 0 min 0 W/m 25,7 km/h (4 Bft) 100,00 %
25.10.2020 06:07 14,7 C 13,9 C 12,8 C 84 % 1003,5 hPa 0,0 l/m 0 min 0 min 0 W/m 25,7 km/h (4 Bft) 98,80 %
25.10.2020 06:08 14,7 C 13,9 C 12,8 C 84 % 1003,5 hPa 0,0 l/m 0 min 0 min 0 W/m 19,3 km/h (3 Bft) 100,00 %
25.10.2020 06:10 14,7 C 13,9 C 12,8 C 83 % 1003,6 hPa 0,0 l/m 0 min 0 min 0 W/m 29,0 km/h (5 Bft) 100,00 %
25.10.2020 06:12 14,7 C 13,9 C 12,8 C 83 % 1003,6 hPa 0,0 l/m 0 min 0 min 0 W/m 29,0 km/h (5 Bft) 100,00 %
25.10.2020 06:14 14,7 C 14,4 C 12,8 C 83 % 1003,7 hPa 0,0 l/m 0 min 0 min 0 W/m 22,5 km/h (4 Bft) 100,00 %
25.10.2020 06:16 14,8 C 14,4 C 12,8 C 83 % 1003,7 hPa 0,0 l/m 0 min 0 min 0 W/m 19,3 km/h (3 Bft) 100,00 %
25.10.2020 06:18 14,8 C 13,9 C 12,8 C 83 % 1003,8 hPa 0,0 l/m 0 min 0 min 0 W/m 6,4 km/h (2 Bft) 100,00 %
25.10.2020 06:20 14,8 C 13,9 C 12,8 C 83 % 1003,7 hPa 0,0 l/m 0 min 0 min 0 W/m 16,1 km/h (3 Bft) 100,00 %
25.10.2020 06:22 14,8 C 13,9 C 12,8 C 83 % 1003,7 hPa 0,0 l/m 0 min 0 min 0 W/m 25,7 km/h (4 Bft) 98,25 %
25.10.2020 06:24 14,8 C 13,9 C 12,8 C 83 % 1003,7 hPa 0,0 l/m 0 min 0 min 0 W/m 19,3 km/h (3 Bft) 100,00 %
25.10.2020 06:26 14,8 C 13,9 C 12,8 C 83 % 1003,7 hPa 0,0 l/m 0 min 0 min 0 W/m 22,5 km/h (4 Bft) 100,00 %
25.10.2020 06:28 14,8 C 13,9 C 12,8 C 83 % 1003,6 hPa 0,0 l/m 0 min 0 min 0 W/m 22,5 km/h (4 Bft) 100,00 %
25.10.2020 06:30 14,8 C 13,9 C 12,8 C 83 % 1003,5 hPa 0,0 l/m 0 min 0 min 0 W/m 6,4 km/h (2 Bft) 100,00 %
25.10.2020 06:32 14,8 C 13,9 C 12,8 C 83 % 1003,6 hPa 0,0 l/m 0 min 0 min 0 W/m 19,3 km/h (3 Bft) 100,00 %
25.10.2020 06:34 14,8 C 13,9 C 12,8 C 83 % 1003,5 hPa 0,0 l/m 0 min 0 min 0 W/m 6,4 km/h (2 Bft) 97,92 %
25.10.2020 06:36 14,8 C 13,9 C 12,8 C 83 % 1003,5 hPa 0,0 l/m 0 min 0 min 0 W/m 16,1 km/h (3 Bft) 97,92 %
25.10.2020 06:38 14,8 C 13,9 C 12,8 C 83 % 1003,5 hPa 0,0 l/m 0 min 0 min 0 W/m 16,1 km/h (3 Bft) 100,00 %
25.10.2020 06:40 14,7 C 13,9 C 12,8 C 83 % 1003,5 hPa 0,0 l/m 0 min 0 min 0 W/m 16,1 km/h (3 Bft) 100,00 %
25.10.2020 06:42 14,7 C 13,9 C 12,8 C 83 % 1003,6 hPa 0,0 l/m 0 min 0 min 0 W/m 0,0 km/h (0 Bft) 100,00 %
25.10.2020 06:44 14,7 C 13,9 C 12,8 C 83 % 1003,6 hPa 0,0 l/m 0 min 0 min 0 W/m 29,0 km/h (5 Bft) 95,74 %
25.10.2020 06:46 14,6 C 13,9 C 12,8 C 83 % 1003,6 hPa 0,0 l/m 0 min 0 min 0 W/m 35,4 km/h (5 Bft) 100,00 %
25.10.2020 06:48 14,6 C 13,9 C 12,8 C 83 % 1003,6 hPa 0,0 l/m 0 min 0 min 0 W/m 22,5 km/h (4 Bft) 100,00 %
25.10.2020 06:50 14,6 C 13,9 C 12,8 C 83 % 1003,6 hPa 0,0 l/m 0 min 0 min 0 W/m 0,0 km/h (0 Bft) 97,83 %
25.10.2020 06:52 14,6 C 13,9 C 12,8 C 83 % 1003,6 hPa 0,0 l/m 0 min 0 min 0 W/m 29,0 km/h (5 Bft) 97,87 %
25.10.2020 06:54 14,6 C 13,9 C 12,8 C 83 % 1003,7 hPa 0,0 l/m 0 min 0 min 0 W/m 22,5 km/h (4 Bft) 100,00 %
25.10.2020 06:56 14,6 C 13,9 C 12,8 C 83 % 1003,7 hPa 0,0 l/m 0 min 0 min 0 W/m 38,6 km/h (5 Bft) 100,00 %
25.10.2020 06:58 14,6 C 13,9 C 12,8 C 83 % 1003,7 hPa 0,0 l/m 0 min 0 min 0 W/m 25,7 km/h (4 Bft) 98,00 %
25.10.2020 07:00 14,6 C 13,9 C 12,8 C 83 % 1003,7 hPa 0,0 l/m 0 min 0 min 0 W/m 22,5 km/h (4 Bft) 97,87 %
25.10.2020 07:02 14,6 C 13,9 C 12,8 C 84 % 1003,7 hPa 0,0 l/m 0 min 0 min 0 W/m 12,9 km/h (3 Bft) 100,00 %
25.10.2020 07:04 14,6 C 13,9 C 12,8 C 84 % 1003,8 hPa 0,0 l/m 0 min 0 min 0 W/m 32,2 km/h (5 Bft) 100,00 %
25.10.2020 07:06 14,5 C 13,9 C 12,8 C 84 % 1003,8 hPa 0,0 l/m 0 min 0 min 0 W/m 16,1 km/h (3 Bft) 100,00 %
25.10.2020 07:08 14,5 C 13,9 C 12,8 C 84 % 1003,9 hPa 0,0 l/m 0 min 0 min 0 W/m 22,5 km/h (4 Bft) 100,00 %
25.10.2020 07:10 14,5 C 13,9 C 12,8 C 84 % 1003,9 hPa 0,0 l/m 0 min 0 min 0 W/m 12,9 km/h (3 Bft) 97,87 %
25.10.2020 07:12 14,5 C 13,9 C 12,2 C 84 % 1003,8 hPa 0,0 l/m 0 min 0 min 0 W/m 9,7 km/h (2 Bft) 100,00 %
25.10.2020 07:14 14,5 C 13,9 C 12,2 C 84 % 1003,8 hPa 0,0 l/m 0 min 0 min 0 W/m 16,1 km/h (3 Bft) 100,00 %
25.10.2020 07:16 14,5 C 13,9 C 12,2 C 84 % 1003,6 hPa 0,0 l/m 0 min 0 min 0 W/m 22,5 km/h (4 Bft) 95,74 %
25.10.2020 07:18 14,5 C 13,9 C 12,2 C 84 % 1003,7 hPa 0,0 l/m 0 min 0 min 0 W/m 16,1 km/h (3 Bft) 97,87 %
25.10.2020 07:20 14,5 C 13,9 C 12,2 C 84 % 1003,8 hPa 0,0 l/m 0 min 0 min 0 W/m 19,3 km/h (3 Bft) 97,87 %
25.10.2020 07:22 14,4 C 13,9 C 12,2 C 84 % 1003,9 hPa 0,0 l/m 0 min 0 min 0 W/m 16,1 km/h (3 Bft) 97,62 %
25.10.2020 07:24 14,4 C 13,3 C 12,2 C 84 % 1003,8 hPa 0,0 l/m 0 min 0 min 0 W/m 16,1 km/h (3 Bft) 96,30 %
25.10.2020 07:26 14,4 C 13,9 C 12,2 C 84 % 1003,8 hPa 0,0 l/m 0 min 0 min 0 W/m 22,5 km/h (4 Bft) 95,74 %
25.10.2020 07:28 14,4 C 13,3 C 12,2 C 84 % 1003,7 hPa 0,0 l/m 0 min 0 min 0 W/m 19,3 km/h (3 Bft) 95,74 %
25.10.2020 07:30 14,4 C 13,3 C 12,2 C 84 % 1003,7 hPa 0,0 l/m 0 min 0 min 0 W/m 19,3 km/h (3 Bft) 95,74 %
25.10.2020 07:32 14,4 C 13,3 C 12,2 C 84 % 1003,7 hPa 0,0 l/m 0 min 0 min 0 W/m 16,1 km/h (3 Bft) 95,24 %
25.10.2020 07:34 14,4 C 13,3 C 12,2 C 84 % 1003,7 hPa 0,0 l/m 0 min 0 min 0 W/m 22,5 km/h (4 Bft) 95,83 %
25.10.2020 07:36 14,3 C 13,3 C 12,2 C 84 % 1003,6 hPa 0,0 l/m 0 min 0 min 0 W/m 12,9 km/h (3 Bft) 93,75 %
25.10.2020 07:38 14,3 C 13,3 C 12,2 C 84 % 1003,6 hPa 0,0 l/m 0 min 0 min 0 W/m 19,3 km/h (3 Bft) 95,74 %
25.10.2020 07:40 14,3 C 13,3 C 12,2 C 84 % 1003,6 hPa 0,0 l/m 0 min 0 min 0 W/m 12,9 km/h (3 Bft) 97,83 %
25.10.2020 07:42 14,2 C 13,3 C 12,2 C 85 % 1003,6 hPa 0,0 l/m 0 min 0 min 0 W/m 0,0 km/h (0 Bft) 93,75 %
25.10.2020 07:44 14,2 C 13,3 C 12,2 C 85 % 1003,6 hPa 0,0 l/m 0 min 0 min 0 W/m 0,0 km/h (0 Bft) 95,74 %
25.10.2020 07:46 14,2 C 13,3 C 12,2 C 85 % 1003,5 hPa 0,0 l/m 0 min 0 min 0 W/m 16,1 km/h (3 Bft) 95,83 %
25.10.2020 07:48 14,2 C 13,3 C 12,2 C 85 % 1003,5 hPa 0,0 l/m 0 min 0 min 0 W/m 22,5 km/h (4 Bft) 95,83 %
25.10.2020 07:50 14,2 C 13,3 C 12,2 C 85 % 1003,6 hPa 0,0 l/m 0 min 0 min 0 W/m 0,0 km/h (0 Bft) 95,74 %
25.10.2020 07:52 14,2 C 13,3 C 12,2 C 85 % 1003,6 hPa 0,0 l/m 0 min 2 min 3 W/m 0,0 km/h (0 Bft) 91,49 %
25.10.2020 07:54 14,2 C 13,3 C 12,2 C 85 % 1003,5 hPa 0,0 l/m 0 min 2 min 7 W/m 6,4 km/h (2 Bft) 93,62 %
25.10.2020 07:56 14,2 C 12,8 C 11,7 C 85 % 1003,5 hPa 0,0 l/m 0 min 2 min 10 W/m 25,7 km/h (4 Bft) 93,62 %
25.10.2020 07:58 14,2 C 12,8 C 11,7 C 85 % 1003,5 hPa 0,0 l/m 0 min 2 min 12 W/m 19,3 km/h (3 Bft) 93,48 %
25.10.2020 08:00 14,2 C 12,8 C 11,7 C 85 % 1003,5 hPa 0,0 l/m 0 min 2 min 12 W/m 22,5 km/h (4 Bft) 92,86 %
25.10.2020 08:02 14,2 C 12,8 C 11,7 C 85 % 1003,4 hPa 0,0 l/m 0 min 2 min 12 W/m 16,1 km/h (3 Bft) 93,88 %
25.10.2020 08:04 14,2 C 12,8 C 11,7 C 85 % 1003,3 hPa 0,0 l/m 0 min 0 min 15 W/m 19,3 km/h (3 Bft) 94,00 %
25.10.2020 08:06 14,2 C 12,8 C 11,7 C 86 % 1003,4 hPa 0,0 l/m 0 min 0 min 15 W/m 19,3 km/h (3 Bft) 93,62 %
25.10.2020 08:08 14,1 C 12,8 C 11,7 C 86 % 1003,5 hPa 0,0 l/m 0 min 0 min 16 W/m 12,9 km/h (3 Bft) 95,74 %
25.10.2020 08:10 14,1 C 12,8 C 11,7 C 86 % 1003,5 hPa 0,0 l/m 0 min 0 min 18 W/m 0,0 km/h (0 Bft) 93,48 %
25.10.2020 08:12 14,1 C 12,8 C 11,7 C 86 % 1003,5 hPa 0,0 l/m 0 min 0 min 19 W/m 19,3 km/h (3 Bft) 91,67 %
25.10.2020 08:14 14,0 C 12,8 C 11,7 C 86 % 1003,5 hPa 0,0 l/m 0 min 2 min 19 W/m 6,4 km/h (2 Bft) 95,74 %
25.10.2020 08:16 14,0 C 12,8 C 11,7 C 86 % 1003,5 hPa 0,0 l/m 0 min 2 min 20 W/m 16,1 km/h (3 Bft) 93,62 %
25.10.2020 08:18 14,0 C 12,8 C 11,7 C 86 % 1003,5 hPa 0,0 l/m 0 min 0 min 20 W/m 3,2 km/h (1 Bft) 95,24 %
25.10.2020 08:20 14,0 C 12,8 C 11,7 C 86 % 1003,6 hPa 0,0 l/m 0 min 0 min 17 W/m 6,4 km/h (2 Bft) 97,92 %
25.10.2020 08:22 14,0 C 12,8 C 11,7 C 86 % 1003,6 hPa 0,0 l/m 0 min 0 min 16 W/m 16,1 km/h (3 Bft) 95,74 %
25.10.2020 08:24 14,0 C 12,8 C 11,7 C 86 % 1003,6 hPa 0,0 l/m 0 min 0 min 16 W/m 12,9 km/h (3 Bft) 95,74 %
25.10.2020 08:26 14,0 C 12,8 C 11,7 C 86 % 1003,7 hPa 0,0 l/m 0 min 0 min 17 W/m 16,1 km/h (3 Bft) 92,86 %
25.10.2020 08:28 14,0 C 12,8 C 11,7 C 86 % 1003,7 hPa 0,0 l/m 0 min 2 min 19 W/m 16,1 km/h (3 Bft) 95,74 %
25.10.2020 08:30 13,9 C 12,8 C 11,7 C 86 % 1003,6 hPa 0,0 l/m 0 min 0 min 23 W/m 12,9 km/h (3 Bft) 97,87 %
25.10.2020 08:32 13,9 C 12,8 C 11,7 C 86 % 1003,7 hPa 0,0 l/m 0 min 0 min 24 W/m 25,7 km/h (4 Bft) 97,62 %
25.10.2020 08:34 13,9 C 13,3 C 11,7 C 86 % 1003,7 hPa 0,0 l/m 0 min 0 min 24 W/m 16,1 km/h (3 Bft) 97,92 %
25.10.2020 08:36 13,9 C 13,3 C 11,7 C 86 % 1003,8 hPa 0,0 l/m 0 min 0 min 16 W/m 25,7 km/h (4 Bft) 95,83 %
25.10.2020 08:38 13,9 C 13,3 C 11,7 C 86 % 1003,9 hPa 0,0 l/m 0 min 0 min 14 W/m 9,7 km/h (2 Bft) 97,87 %
25.10.2020 08:40 13,9 C 13,3 C 11,7 C 86 % 1003,8 hPa 0,0 l/m 0 min 0 min 17 W/m 19,3 km/h (3 Bft) 100,00 %
25.10.2020 08:42 13,9 C 13,3 C 12,2 C 86 % 1003,7 hPa 0,0 l/m 0 min 0 min 20 W/m 16,1 km/h (3 Bft) 93,75 %
25.10.2020 08:44 13,9 C 13,3 C 12,2 C 86 % 1003,8 hPa 0,0 l/m 0 min 0 min 18 W/m 16,1 km/h (3 Bft) 100,00 %
25.10.2020 08:46 13,9 C 13,3 C 12,2 C 86 % 1003,8 hPa 0,0 l/m 0 min 0 min 14 W/m 19,3 km/h (3 Bft) 93,62 %
25.10.2020 08:48 13,9 C 13,3 C 12,2 C 86 % 1003,8 hPa 0,0 l/m 0 min 0 min 11 W/m 22,5 km/h (4 Bft) 100,00 %
25.10.2020 08:50 13,9 C 13,3 C 12,2 C 86 % 1003,9 hPa 0,0 l/m 0 min 0 min 10 W/m 25,7 km/h (4 Bft) 100,00 %
25.10.2020 08:52 13,9 C 12,8 C 12,2 C 86 % 1003,9 hPa 0,0 l/m 0 min 2 min 11 W/m 19,3 km/h (3 Bft) 100,00 %
25.10.2020 08:54 13,9 C 12,2 C 11,7 C 86 % 1003,8 hPa 0,0 l/m 0 min 2 min 14 W/m 0,0 km/h (0 Bft) 100,00 %
25.10.2020 08:56 13,9 C 12,2 C 11,7 C 86 % 1003,9 hPa 0,0 l/m 0 min 2 min 14 W/m 12,9 km/h (3 Bft) 93,48 %
25.10.2020 08:58 13,9 C 12,2 C 11,1 C 86 % 1003,9 hPa 0,0 l/m 0 min 0 min 12 W/m 16,1 km/h (3 Bft) 100,00 %
25.10.2020 09:00 13,9 C 12,2 C 11,1 C 86 % 1004,0 hPa 0,0 l/m 0 min 0 min 12 W/m 16,1 km/h (3 Bft) 100,00 %
25.10.2020 09:02 13,9 C 12,2 C 11,1 C 86 % 1003,9 hPa 0,0 l/m 0 min 0 min 14 W/m 0,0 km/h (0 Bft) 100,00 %
25.10.2020 09:04 13,9 C 12,2 C 11,1 C 86 % 1003,9 hPa 0,0 l/m 0 min 0 min 12 W/m 3,2 km/h (1 Bft) 100,00 %
25.10.2020 09:06 13,8 C 12,2 C 11,1 C 86 % 1003,9 hPa 0,0 l/m 0 min 2 min 11 W/m 0,0 km/h (0 Bft) 100,00 %
25.10.2020 09:08 13,8 C 12,2 C 11,1 C 86 % 1003,8 hPa 0,0 l/m 0 min 0 min 13 W/m 0,0 km/h (0 Bft) 97,83 %
25.10.2020 09:10 13,8 C 12,2 C 11,1 C 87 % 1003,8 hPa 0,0 l/m 0 min 0 min 18 W/m 0,0 km/h (0 Bft) 100,00 %
25.10.2020 09:12 13,8 C 12,2 C 11,1 C 87 % 1003,8 hPa 0,0 l/m 0 min 0 min 16 W/m 12,9 km/h (3 Bft) 97,87 %
25.10.2020 09:14 13,8 C 12,2 C 11,7 C 87 % 1003,9 hPa 0,0 l/m 0 min 0 min 15 W/m 6,4 km/h (2 Bft) 100,00 %
25.10.2020 09:16 13,8 C 12,8 C 11,7 C 87 % 1003,9 hPa 0,0 l/m 0 min 0 min 15 W/m 0,0 km/h (0 Bft) 100,00 %
25.10.2020 09:18 13,8 C 12,8 C 11,7 C 87 % 1003,8 hPa 0,0 l/m 0 min 0 min 20 W/m 19,3 km/h (3 Bft) 100,00 %
25.10.2020 09:20 13,8 C 12,8 C 11,7 C 87 % 1003,9 hPa 0,0 l/m 0 min 0 min 18 W/m 19,3 km/h (3 Bft) 100,00 %
25.10.2020 09:22 13,8 C 12,8 C 11,7 C 87 % 1003,8 hPa 0,0 l/m 0 min 0 min 21 W/m 19,3 km/h (3 Bft) 95,83 %
25.10.2020 09:24 13,8 C 12,8 C 11,7 C 86 % 1003,9 hPa 0,0 l/m 0 min 0 min 20 W/m 0,0 km/h (0 Bft) 97,83 %
25.10.2020 09:26 13,8 C 12,8 C 11,7 C 87 % 1003,8 hPa 0,0 l/m 0 min 0 min 18 W/m 16,1 km/h (3 Bft) 100,00 %
25.10.2020 09:28 13,8 C 13,3 C 11,7 C 86 % 1003,9 hPa 0,0 l/m 0 min 0 min 25 W/m 22,5 km/h (4 Bft) 95,45 %
25.10.2020 09:30 13,8 C 13,3 C 11,7 C 86 % 1003,8 hPa 0,0 l/m 0 min 0 min 20 W/m 19,3 km/h (3 Bft) 100,00 %
25.10.2020 09:32 13,8 C 13,3 C 11,7 C 86 % 1003,7 hPa 0,0 l/m 0 min 0 min 28 W/m 9,7 km/h (2 Bft) 100,00 %
25.10.2020 09:34 13,8 C 13,3 C 12,2 C 86 % 1003,6 hPa 0,0 l/m 0 min 0 min 39 W/m 3,2 km/h (1 Bft) 100,00 %
25.10.2020 09:36 13,8 C 13,3 C 12,2 C 86 % 1003,7 hPa 0,0 l/m 0 min 0 min 39 W/m 9,7 km/h (2 Bft) 100,00 %
25.10.2020 09:38 13,8 C 13,3 C 12,2 C 86 % 1003,7 hPa 0,0 l/m 0 min 0 min 28 W/m 9,7 km/h (2 Bft) 97,87 %
25.10.2020 09:40 13,8 C 13,3 C 12,2 C 87 % 1003,7 hPa 0,0 l/m 0 min 0 min 19 W/m 6,4 km/h (2 Bft) 100,00 %
25.10.2020 09:42 13,8 C 13,3 C 12,2 C 87 % 1003,7 hPa 0,0 l/m 0 min 0 min 26 W/m 0,0 km/h (0 Bft) 100,00 %
25.10.2020 09:44 13,8 C 13,3 C 12,2 C 87 % 1003,7 hPa 0,0 l/m 0 min 0 min 27 W/m 0,0 km/h (0 Bft) 100,00 %
25.10.2020 09:46 13,8 C 13,3 C 12,2 C 87 % 1003,7 hPa 0,0 l/m 0 min 0 min 28 W/m 16,1 km/h (3 Bft) 97,87 %
25.10.2020 09:48 13,8 C 13,3 C 12,2 C 87 % 1003,5 hPa 0,0 l/m 0 min 0 min 40 W/m 12,9 km/h (3 Bft) 97,87 %
25.10.2020 09:50 13,8 C 13,3 C 12,2 C 87 % 1003,5 hPa 0,0 l/m 0 min 0 min 35 W/m 3,2 km/h (1 Bft) 100,00 %
25.10.2020 09:52 13,8 C 13,3 C 12,2 C 87 % 1003,5 hPa 0,0 l/m 0 min 0 min 34 W/m 0,0 km/h (0 Bft) 97,92 %
25.10.2020 09:54 13,8 C 13,3 C 11,7 C 87 % 1003,5 hPa 0,0 l/m 0 min 2 min 31 W/m 0,0 km/h (0 Bft) 100,00 %
25.10.2020 09:56 13,8 C 12,8 C 11,7 C 87 % 1003,5 hPa 0,0 l/m 0 min 0 min 26 W/m 19,3 km/h (3 Bft) 97,92 %
25.10.2020 09:58 13,8 C 12,8 C 11,7 C 87 % 1003,5 hPa 0,0 l/m 0 min 0 min 23 W/m 9,7 km/h (2 Bft) 98,00 %
25.10.2020 10:00 13,8 C 12,8 C 11,7 C 87 % 1003,5 hPa 0,0 l/m 0 min 0 min 27 W/m 0,0 km/h (0 Bft) 100,00 %
25.10.2020 10:02 13,8 C 12,8 C 11,7 C 87 % 1003,4 hPa 0,0 l/m 0 min 0 min 28 W/m 3,2 km/h (1 Bft) 100,00 %
25.10.2020 10:04 13,8 C 12,8 C 11,7 C 87 % 1003,4 hPa 0,0 l/m 0 min 0 min 31 W/m 0,0 km/h (0 Bft) 100,00 %
25.10.2020 10:06 13,8 C 12,8 C 11,7 C 87 % 1003,4 hPa 0,0 l/m 0 min 0 min 38 W/m 12,9 km/h (3 Bft) 97,87 %
25.10.2020 10:08 13,8 C 12,8 C 11,7 C 87 % 1003,3 hPa 0,0 l/m 0 min 0 min 46 W/m 3,2 km/h (1 Bft) 95,65 %
25.10.2020 10:10 13,8 C 12,8 C 11,7 C 87 % 1003,3 hPa 0,0 l/m 0 min 0 min 46 W/m 0,0 km/h (0 Bft) 97,62 %
25.10.2020 10:12 13,8 C 12,8 C 11,7 C 87 % 1003,4 hPa 0,0 l/m 0 min 0 min 45 W/m 0,0 km/h (0 Bft) 97,87 %
25.10.2020 10:14 13,8 C 13,3 C 11,7 C 87 % 1003,4 hPa 0,0 l/m 0 min 0 min 45 W/m 0,0 km/h (0 Bft) 95,74 %
25.10.2020 10:16 13,8 C 13,3 C 11,7 C 87 % 1003,4 hPa 0,0 l/m 0 min 0 min 46 W/m 0,0 km/h (0 Bft) 97,87 %
25.10.2020 10:18 13,8 C 12,8 C 11,7 C 87 % 1003,4 hPa 0,0 l/m 0 min 2 min 51 W/m 0,0 km/h (0 Bft) 97,92 %
25.10.2020 10:20 13,8 C 12,8 C 11,7 C 87 % 1003,4 hPa 0,0 l/m 0 min 2 min 61 W/m 0,0 km/h (0 Bft) 97,92 %
25.10.2020 10:22 13,8 C 12,8 C 11,7 C 87 % 1003,4 hPa 0,0 l/m 0 min 2 min 75 W/m 6,4 km/h (2 Bft) 97,92 %
25.10.2020 10:24 13,8 C 12,8 C 11,7 C 88 % 1003,3 hPa 0,0 l/m 0 min 2 min 78 W/m 6,4 km/h (2 Bft) 97,83 %
25.10.2020 10:26 13,8 C 12,2 C 11,7 C 88 % 1003,2 hPa 0,0 l/m 0 min 2 min 76 W/m 6,4 km/h (2 Bft) 97,92 %
25.10.2020 10:28 13,8 C 12,2 C 11,1 C 88 % 1003,2 hPa 0,0 l/m 0 min 2 min 66 W/m 3,2 km/h (1 Bft) 97,92 %
25.10.2020 10:30 13,8 C 12,2 C 11,1 C 88 % 1003,1 hPa 0,0 l/m 0 min 2 min 50 W/m 0,0 km/h (0 Bft) 97,92 %
25.10.2020 10:32 13,8 C 12,2 C 11,1 C 88 % 1003,0 hPa 0,0 l/m 0 min 2 min 41 W/m 16,1 km/h (3 Bft) 97,87 %
25.10.2020 10:34 13,8 C 11,7 C 11,1 C 88 % 1003,0 hPa 0,0 l/m 0 min 2 min 43 W/m 6,4 km/h (2 Bft) 97,83 %
25.10.2020 10:36 13,7 C 11,7 C 10,6 C 88 % 1003,0 hPa 0,0 l/m 0 min 2 min 49 W/m 0,0 km/h (0 Bft) 97,92 %
25.10.2020 10:38 13,7 C 11,7 C 10,6 C 88 % 1003,0 hPa 0,0 l/m 0 min 2 min 59 W/m 0,0 km/h (0 Bft) 95,74 %
25.10.2020 10:40 13,7 C 11,7 C 10,6 C 88 % 1003,0 hPa 0,0 l/m 0 min 2 min 62 W/m 0,0 km/h (0 Bft) 93,62 %
25.10.2020 10:42 13,7 C 11,7 C 10,6 C 88 % 1003,0 hPa 0,2 l/m 0 min 2 min 56 W/m 9,7 km/h (2 Bft) 93,75 %
25.10.2020 10:44 13,7 C 11,7 C 10,6 C 89 % 1003,0 hPa 0,0 l/m 0 min 2 min 47 W/m 6,4 km/h (2 Bft) 97,14 %
25.10.2020 10:46 13,7 C 11,7 C 10,6 C 89 % 1003,1 hPa 0,0 l/m 0 min 2 min 52 W/m 9,7 km/h (2 Bft) 93,22 %
25.10.2020 10:48 13,7 C 11,7 C 10,6 C 89 % 1003,0 hPa 0,0 l/m 0 min 2 min 70 W/m 0,0 km/h (0 Bft) 95,83 %
25.10.2020 10:50 13,7 C 11,7 C 10,6 C 89 % 1003,0 hPa 0,0 l/m 0 min 2 min 80 W/m 0,0 km/h (0 Bft) 93,62 %
25.10.2020 10:52 13,6 C 11,7 C 10,6 C 89 % 1003,0 hPa 0,2 l/m 0 min 2 min 79 W/m 0,0 km/h (0 Bft) 94,44 %
25.10.2020 10:54 13,6 C 11,7 C 10,6 C 90 % 1003,0 hPa 0,0 l/m 0 min 2 min 70 W/m 0,0 km/h (0 Bft) 95,74 %
25.10.2020 10:56 13,6 C 11,7 C 10,6 C 90 % 1003,0 hPa 0,0 l/m 0 min 2 min 68 W/m 0,0 km/h (0 Bft) 97,87 %
25.10.2020 10:58 13,6 C 11,7 C 10,6 C 90 % 1003,0 hPa 0,0 l/m 0 min 2 min 71 W/m 0,0 km/h (0 Bft) 96,61 %
25.10.2020 11:00 13,6 C 11,7 C 10,6 C 90 % 1002,9 hPa 0,2 l/m 0 min 2 min 68 W/m 0,0 km/h (0 Bft) 97,87 %
25.10.2020 11:02 13,6 C 11,7 C 10,6 C 90 % 1002,8 hPa 0,0 l/m 0 min 2 min 67 W/m 0,0 km/h (0 Bft) 94,44 %
25.10.2020 11:04 13,6 C 11,7 C 10,6 C 90 % 1002,8 hPa 0,0 l/m 0 min 2 min 68 W/m 0,0 km/h (0 Bft) 97,56 %
25.10.2020 11:06 13,6 C 11,7 C 10,6 C 90 % 1002,9 hPa 0,0 l/m 0 min 2 min 67 W/m 0,0 km/h (0 Bft) 95,83 %
25.10.2020 11:08 13,6 C 11,7 C 10,6 C 91 % 1002,9 hPa 0,2 l/m 0 min 2 min 57 W/m 0,0 km/h (0 Bft) 93,75 %
25.10.2020 11:10 13,6 C 11,7 C 10,6 C 91 % 1002,9 hPa 0,0 l/m 0 min 2 min 73 W/m 0,0 km/h (0 Bft) 95,83 %
25.10.2020 11:12 13,6 C 11,7 C 10,6 C 91 % 1002,8 hPa 0,0 l/m 0 min 2 min 77 W/m 0,0 km/h (0 Bft) 95,74 %
25.10.2020 11:14 13,5 C 11,7 C 10,6 C 91 % 1002,9 hPa 0,0 l/m 0 min 2 min 57 W/m 0,0 km/h (0 Bft) 95,74 %
25.10.2020 11:16 13,5 C 11,7 C 10,6 C 91 % 1002,9 hPa 0,0 l/m 0 min 2 min 50 W/m 0,0 km/h (0 Bft) 95,83 %
25.10.2020 11:18 13,5 C 11,7 C 10,6 C 91 % 1002,9 hPa 0,0 l/m 0 min 2 min 55 W/m 0,0 km/h (0 Bft) 91,49 %
25.10.2020 11:20 13,5 C 11,7 C 10,6 C 91 % 1003,0 hPa 0,0 l/m 0 min 2 min 51 W/m 0,0 km/h (0 Bft) 95,74 %
25.10.2020 11:22 13,5 C 11,7 C 10,6 C 92 % 1003,0 hPa 0,0 l/m 0 min 2 min 38 W/m 12,9 km/h (3 Bft) 95,74 %
25.10.2020 11:24 13,5 C 11,7 C 10,6 C 91 % 1003,1 hPa 0,0 l/m 0 min 2 min 27 W/m 3,2 km/h (1 Bft) 95,74 %
25.10.2020 11:26 13,5 C 11,1 C 10,6 C 92 % 1003,2 hPa 0,2 l/m 0 min 2 min 25 W/m 6,4 km/h (2 Bft) 97,87 %
25.10.2020 11:28 13,4 C 11,1 C 10,6 C 92 % 1003,2 hPa 0,0 l/m 0 min 2 min 23 W/m 0,0 km/h (0 Bft) 95,74 %
25.10.2020 11:30 13,4 C 11,1 C 10,6 C 92 % 1003,2 hPa 0,2 l/m 0 min 2 min 26 W/m 0,0 km/h (0 Bft) 97,83 %
25.10.2020 11:32 13,4 C 11,1 C 10,6 C 92 % 1003,3 hPa 0,0 l/m 0 min 2 min 32 W/m 0,0 km/h (0 Bft) 97,87 %
25.10.2020 11:34 13,4 C 11,7 C 10,6 C 92 % 1003,3 hPa 0,2 l/m 0 min 2 min 40 W/m 0,0 km/h (0 Bft) 97,87 %
25.10.2020 11:36 13,4 C 11,7 C 10,6 C 92 % 1003,2 hPa 0,0 l/m 0 min 2 min 42 W/m 0,0 km/h (0 Bft) 97,56 %
25.10.2020 11:38 13,3 C 11,7 C 10,6 C 92 % 1003,3 hPa 0,2 l/m 0 min 2 min 45 W/m 0,0 km/h (0 Bft) 95,83 %
25.10.2020 11:40 13,3 C 11,7 C 10,6 C 93 % 1003,3 hPa 0,0 l/m 0 min 2 min 55 W/m 0,0 km/h (0 Bft) 97,92 %
25.10.2020 11:42 13,3 C 11,7 C 10,6 C 93 % 1003,3 hPa 0,2 l/m 0 min 2 min 55 W/m 0,0 km/h (0 Bft) 95,92 %
25.10.2020 11:44 13,3 C 11,7 C 10,6 C 93 % 1003,3 hPa 0,0 l/m 0 min 2 min 39 W/m 0,0 km/h (0 Bft) 97,92 %
25.10.2020 11:46 13,3 C 11,7 C 10,6 C 93 % 1003,3 hPa 0,0 l/m 0 min 0 min 22 W/m 0,0 km/h (0 Bft) 97,87 %
25.10.2020 11:48 13,3 C 11,1 C 10,6 C 93 % 1003,4 hPa 0,0 l/m 0 min 2 min 19 W/m 0,0 km/h (0 Bft) 97,87 %
25.10.2020 11:50 13,2 C 11,1 C 10,6 C 93 % 1003,4 hPa 0,0 l/m 0 min 2 min 26 W/m 0,0 km/h (0 Bft) 97,87 %
25.10.2020 11:52 13,1 C 11,1 C 10,6 C 93 % 1003,5 hPa 0,2 l/m 0 min 2 min 33 W/m 3,2 km/h (1 Bft) 95,74 %
25.10.2020 11:54 13,1 C 11,1 C 10,6 C 93 % 1003,5 hPa 0,2 l/m 0 min 2 min 30 W/m 19,3 km/h (3 Bft) 97,83 %
25.10.2020 11:56 13,1 C 11,1 C 10,6 C 93 % 1003,5 hPa 0,2 l/m 0 min 2 min 28 W/m 0,0 km/h (0 Bft) 97,87 %
25.10.2020 11:58 13,0 C 11,1 C 10,6 C 94 % 1003,6 hPa 0,2 l/m 0 min 2 min 26 W/m 0,0 km/h (0 Bft) 97,56 %
25.10.2020 12:00 13,0 C 11,1 C 10,6 C 94 % 1003,6 hPa 0,2 l/m 0 min 2 min 27 W/m 0,0 km/h (0 Bft) 97,92 %
25.10.2020 12:02 13,0 C 11,1 C 10,6 C 94 % 1003,7 hPa 0,2 l/m 0 min 2 min 20 W/m 0,0 km/h (0 Bft) 95,74 %
25.10.2020 12:04 12,9 C 11,1 C 10,6 C 94 % 1003,6 hPa 0,0 l/m 0 min 2 min 28 W/m 0,0 km/h (0 Bft) 95,74 %
25.10.2020 12:08 12,9 C 11,1 C 10,6 C 94 % 1003,7 hPa 0,2 l/m 0 min 4 min 25 W/m 3,2 km/h (1 Bft) 100,00 %
25.10.2020 12:10 12,9 C 11,1 C 10,6 C 94 % 1003,7 hPa 0,0 l/m 0 min 2 min 24 W/m 9,7 km/h (2 Bft) 93,48 %
25.10.2020 12:12 12,9 C 11,1 C 10,6 C 94 % 1003,8 hPa 0,0 l/m 0 min 2 min 29 W/m 16,1 km/h (3 Bft) 100,00 %
25.10.2020 12:14 12,8 C 11,1 C 10,6 C 95 % 1003,7 hPa 0,2 l/m 0 min 2 min 32 W/m 3,2 km/h (1 Bft) 100,00 %
25.10.2020 12:16 12,8 C 11,1 C 10,6 C 95 % 1003,7 hPa 0,2 l/m 0 min 2 min 32 W/m 12,9 km/h (3 Bft) 100,00 %
25.10.2020 12:18 12,8 C 11,1 C 10,6 C 95 % 1003,6 hPa 0,0 l/m 0 min 2 min 36 W/m 16,1 km/h (3 Bft) 100,00 %
25.10.2020 12:20 12,8 C 11,1 C 10,6 C 95 % 1003,7 hPa 0,2 l/m 0 min 2 min 36 W/m 0,0 km/h (0 Bft) 97,87 %
25.10.2020 12:22 12,7 C 11,1 C 10,6 C 95 % 1003,7 hPa 0,0 l/m 0 min 2 min 31 W/m 6,4 km/h (2 Bft) 100,00 %
25.10.2020 12:24 12,7 C 11,1 C 10,6 C 95 % 1003,7 hPa 0,2 l/m 0 min 2 min 36 W/m 12,9 km/h (3 Bft) 100,00 %
25.10.2020 12:26 12,7 C 11,1 C 10,6 C 95 % 1003,7 hPa 0,0 l/m 0 min 2 min 44 W/m 16,1 km/h (3 Bft) 100,00 %
25.10.2020 12:28 12,6 C 11,1 C 10,6 C 95 % 1003,7 hPa 0,2 l/m 0 min 2 min 45 W/m 9,7 km/h (2 Bft) 100,00 %
25.10.2020 12:30 12,6 C 11,7 C 10,6 C 95 % 1003,7 hPa 0,0 l/m 0 min 2 min 78 W/m 16,1 km/h (3 Bft) 100,00 %
25.10.2020 12:32 12,6 C 11,7 C 10,6 C 95 % 1003,7 hPa 0,0 l/m 0 min 2 min 101 W/m 6,4 km/h (2 Bft) 98,08 %
25.10.2020 12:34 12,6 C 11,7 C 10,6 C 96 % 1003,7 hPa 0,0 l/m 0 min 2 min 83 W/m 3,2 km/h (1 Bft) 97,87 %
25.10.2020 12:36 12,6 C 11,7 C 10,6 C 96 % 1003,6 hPa 0,2 l/m 0 min 2 min 70 W/m 0,0 km/h (0 Bft) 100,00 %
25.10.2020 12:38 12,6 C 11,7 C 11,1 C 96 % 1003,5 hPa 0,0 l/m 0 min 2 min 87 W/m 12,9 km/h (3 Bft) 100,00 %
25.10.2020 12:40 12,7 C 11,7 C 11,1 C 96 % 1003,4 hPa 0,0 l/m 0 min 2 min 104 W/m 6,4 km/h (2 Bft) 97,87 %
25.10.2020 12:42 12,6 C 11,7 C 11,1 C 96 % 1003,3 hPa 0,0 l/m 0 min 0 min 120 W/m 0,0 km/h (0 Bft) 92,68 %
25.10.2020 12:44 12,7 C 11,7 C 11,1 C 96 % 1003,2 hPa 0,0 l/m 0 min 2 min 152 W/m 0,0 km/h (0 Bft) 97,87 %
25.10.2020 12:46 12,7 C 11,7 C 11,1 C 96 % 1003,3 hPa 0,0 l/m 0 min 2 min 179 W/m 16,1 km/h (3 Bft) 100,00 %
25.10.2020 12:48 12,8 C 12,2 C 11,1 C 96 % 1003,3 hPa 0,0 l/m 0 min 0 min 166 W/m 16,1 km/h (3 Bft) 97,92 %
25.10.2020 12:50 12,8 C 12,2 C 11,1 C 96 % 1003,3 hPa 0,0 l/m 0 min 0 min 148 W/m 0,0 km/h (0 Bft) 95,83 %
25.10.2020 12:52 12,8 C 11,7 C 11,1 C 96 % 1003,4 hPa 0,0 l/m 0 min 2 min 116 W/m 12,9 km/h (3 Bft) 97,87 %
25.10.2020 12:54 12,8 C 11,7 C 11,1 C 97 % 1003,4 hPa 0,0 l/m 0 min 0 min 85 W/m 16,1 km/h (3 Bft) 97,87 %
25.10.2020 12:56 12,8 C 11,7 C 11,1 C 97 % 1003,4 hPa 0,0 l/m 0 min 0 min 77 W/m 0,0 km/h (0 Bft) 95,83 %
25.10.2020 12:58 12,9 C 11,7 C 11,1 C 97 % 1003,3 hPa 0,0 l/m 0 min 0 min 82 W/m 0,0 km/h (0 Bft) 97,92 %
25.10.2020 13:00 12,9 C 11,7 C 11,1 C 97 % 1003,3 hPa 0,0 l/m 0 min 0 min 79 W/m 16,1 km/h (3 Bft) 97,87 %
25.10.2020 13:02 12,9 C 11,7 C 11,1 C 97 % 1003,3 hPa 0,0 l/m 0 min 0 min 65 W/m 25,7 km/h (4 Bft) 97,83 %
25.10.2020 13:04 12,8 C 11,7 C 11,1 C 97 % 1003,2 hPa 0,0 l/m 0 min 0 min 61 W/m 22,5 km/h (4 Bft) 97,87 %
25.10.2020 13:06 12,8 C 11,7 C 10,6 C 97 % 1003,1 hPa 0,0 l/m 0 min 0 min 65 W/m 16,1 km/h (3 Bft) 97,56 %
25.10.2020 13:08 12,8 C 11,7 C 10,6 C 97 % 1003,1 hPa 0,0 l/m 0 min 0 min 69 W/m 22,5 km/h (4 Bft) 97,92 %
25.10.2020 13:10 12,8 C 11,7 C 10,6 C 97 % 1003,0 hPa 0,0 l/m 0 min 0 min 63 W/m 16,1 km/h (3 Bft) 95,74 %
25.10.2020 13:12 12,7 C 11,7 C 10,6 C 96 % 1003,0 hPa 0,0 l/m 0 min 0 min 46 W/m 22,5 km/h (4 Bft) 97,92 %
25.10.2020 13:14 12,6 C 11,7 C 10,6 C 96 % 1003,1 hPa 0,0 l/m 0 min 0 min 34 W/m 19,3 km/h (3 Bft) 97,87 %
25.10.2020 13:16 12,6 C 11,7 C 10,6 C 96 % 1003,0 hPa 0,0 l/m 0 min 0 min 35 W/m 3,2 km/h (1 Bft) 97,92 %
25.10.2020 13:18 12,6 C 11,7 C 10,6 C 96 % 1003,0 hPa 0,0 l/m 0 min 0 min 33 W/m 0,0 km/h (0 Bft) 97,87 %
25.10.2020 13:20 12,6 C 11,7 C 10,6 C 96 % 1002,9 hPa 0,0 l/m 0 min 0 min 31 W/m 0,0 km/h (0 Bft) 97,92 %
25.10.2020 13:22 12,6 C 11,7 C 10,6 C 97 % 1002,9 hPa 0,0 l/m 0 min 0 min 30 W/m 0,0 km/h (0 Bft) 93,62 %
25.10.2020 13:24 12,5 C 11,7 C 10,6 C 97 % 1002,9 hPa 0,0 l/m 0 min 2 min 30 W/m 16,1 km/h (3 Bft) 95,83 %
25.10.2020 13:26 12,5 C 11,7 C 10,6 C 97 % 1002,9 hPa 0,0 l/m 0 min 0 min 33 W/m 12,9 km/h (3 Bft) 93,48 %
25.10.2020 13:28 12,5 C 11,7 C 10,6 C 97 % 1002,9 hPa 0,0 l/m 0 min 0 min 34 W/m 19,3 km/h (3 Bft) 95,74 %
25.10.2020 13:30 12,5 C 11,7 C 10,6 C 97 % 1002,9 hPa 0,0 l/m 0 min 2 min 34 W/m 0,0 km/h (0 Bft) 95,74 %
25.10.2020 13:32 12,5 C 11,1 C 10,6 C 97 % 1002,9 hPa 0,0 l/m 0 min 2 min 45 W/m 25,7 km/h (4 Bft) 95,74 %
25.10.2020 13:34 12,5 C 11,1 C 10,6 C 97 % 1002,8 hPa 0,2 l/m 0 min 2 min 54 W/m 19,3 km/h (3 Bft) 93,75 %
25.10.2020 13:36 12,4 C 11,1 C 10,6 C 97 % 1002,7 hPa 0,0 l/m 0 min 2 min 67 W/m 22,5 km/h (4 Bft) 95,65 %
25.10.2020 13:38 12,4 C 11,1 C 10,6 C 97 % 1002,7 hPa 0,0 l/m 0 min 2 min 89 W/m 22,5 km/h (4 Bft) 95,74 %
25.10.2020 13:40 12,4 C 11,1 C 10,6 C 97 % 1002,7 hPa 0,0 l/m 0 min 2 min 116 W/m 0,0 km/h (0 Bft) 97,87 %
25.10.2020 13:42 12,4 C 11,1 C 10,6 C 97 % 1002,7 hPa 0,0 l/m 0 min 0 min 132 W/m 3,2 km/h (1 Bft) 97,62 %
25.10.2020 13:44 12,4 C 11,1 C 10,6 C 97 % 1002,6 hPa 0,0 l/m 0 min 2 min 120 W/m 19,3 km/h (3 Bft) 97,92 %
25.10.2020 13:46 12,4 C 11,1 C 10,6 C 97 % 1002,5 hPa 0,0 l/m 0 min 2 min 95 W/m 9,7 km/h (2 Bft) 100,00 %
25.10.2020 13:48 12,4 C 11,1 C 10,6 C 97 % 1002,4 hPa 0,0 l/m 0 min 2 min 62 W/m 0,0 km/h (0 Bft) 97,92 %
25.10.2020 13:50 12,4 C 11,1 C 10,6 C 97 % 1002,3 hPa 0,0 l/m 0 min 2 min 47 W/m 0,0 km/h (0 Bft) 97,87 %
25.10.2020 13:52 12,4 C 11,1 C 10,6 C 97 % 1002,2 hPa 0,0 l/m 0 min 2 min 45 W/m 19,3 km/h (3 Bft) 95,74 %
25.10.2020 13:54 12,4 C 11,1 C 10,6 C 97 % 1002,2 hPa 0,0 l/m 0 min 2 min 53 W/m 0,0 km/h (0 Bft) 97,87 %
25.10.2020 13:56 12,4 C 11,1 C 10,6 C 97 % 1002,3 hPa 0,0 l/m 0 min 2 min 77 W/m 0,0 km/h (0 Bft) 97,92 %
25.10.2020 13:58 12,4 C 11,1 C 10,6 C 97 % 1002,3 hPa 0,2 l/m 0 min 2 min 110 W/m 0,0 km/h (0 Bft) 97,87 %
25.10.2020 14:00 12,4 C 11,7 C 10,6 C 97 % 1002,3 hPa 0,0 l/m 0 min 2 min 136 W/m 0,0 km/h (0 Bft) 97,83 %
25.10.2020 14:02 12,4 C 11,1 C 10,6 C 97 % 1002,4 hPa 0,0 l/m 0 min 2 min 112 W/m 3,2 km/h (1 Bft) 97,87 %
25.10.2020 14:04 12,4 C 11,1 C 10,6 C 97 % 1002,4 hPa 0,0 l/m 0 min 2 min 76 W/m 3,2 km/h (1 Bft) 97,87 %
25.10.2020 14:06 12,4 C 11,1 C 10,6 C 97 % 1002,4 hPa 0,0 l/m 0 min 2 min 62 W/m 16,1 km/h (3 Bft) 97,87 %
25.10.2020 14:08 12,4 C 11,1 C 10,6 C 97 % 1002,5 hPa 0,0 l/m 0 min 0 min 57 W/m 0,0 km/h (0 Bft) 95,74 %
25.10.2020 14:10 12,4 C 11,1 C 10,6 C 97 % 1002,5 hPa 0,0 l/m 0 min 0 min 49 W/m 0,0 km/h (0 Bft) 100,00 %
25.10.2020 14:12 12,4 C 11,1 C 10,6 C 97 % 1002,5 hPa 0,0 l/m 0 min 2 min 65 W/m 0,0 km/h (0 Bft) 100,00 %
25.10.2020 14:14 12,4 C 11,1 C 10,6 C 97 % 1002,6 hPa 0,0 l/m 0 min 2 min 72 W/m 0,0 km/h (0 Bft) 100,00 %
25.10.2020 14:16 12,4 C 11,1 C 10,6 C 97 % 1002,7 hPa 0,0 l/m 0 min 0 min 70 W/m 16,1 km/h (3 Bft) 100,00 %
25.10.2020 14:18 12,4 C 11,1 C 10,6 C 96 % 1002,7 hPa 0,0 l/m 0 min 2 min 73 W/m 22,5 km/h (4 Bft) 97,87 %
25.10.2020 14:20 12,4 C 11,1 C 10,6 C 96 % 1002,7 hPa 0,0 l/m 0 min 2 min 72 W/m 12,9 km/h (3 Bft) 100,00 %
25.10.2020 14:22 12,3 C 11,1 C 10,6 C 96 % 1002,7 hPa 0,0 l/m 0 min 0 min 70 W/m 0,0 km/h (0 Bft) 100,00 %
25.10.2020 14:24 12,3 C 11,1 C 10,6 C 96 % 1002,7 hPa 0,0 l/m 0 min 0 min 74 W/m 0,0 km/h (0 Bft) 100,00 %
25.10.2020 14:26 12,3 C 11,1 C 10,6 C 96 % 1002,8 hPa 0,0 l/m 0 min 2 min 68 W/m 0,0 km/h (0 Bft) 100,00 %
25.10.2020 14:28 12,3 C 11,1 C 10,6 C 96 % 1002,8 hPa 0,0 l/m 0 min 2 min 62 W/m 6,4 km/h (2 Bft) 97,92 %
25.10.2020 14:30 12,3 C 11,1 C 10,6 C 96 % 1002,8 hPa 0,0 l/m 0 min 2 min 61 W/m 0,0 km/h (0 Bft) 100,00 %
25.10.2020 14:32 12,3 C 11,1 C 10,6 C 96 % 1002,8 hPa 0,0 l/m 0 min 2 min 50 W/m 0,0 km/h (0 Bft) 97,92 %
25.10.2020 14:34 12,3 C 11,1 C 10,6 C 96 % 1002,7 hPa 0,0 l/m 0 min 2 min 45 W/m 16,1 km/h (3 Bft) 100,00 %
25.10.2020 14:36 12,3 C 11,1 C 10,6 C 96 % 1002,8 hPa 0,0 l/m 0 min 2 min 52 W/m 16,1 km/h (3 Bft) 100,00 %
25.10.2020 14:38 12,3 C 11,1 C 10,6 C 96 % 1002,8 hPa 0,0 l/m 0 min 2 min 50 W/m 3,2 km/h (1 Bft) 100,00 %
25.10.2020 14:40 12,3 C 10,6 C 10,6 C 96 % 1002,8 hPa 0,0 l/m 0 min 2 min 42 W/m 0,0 km/h (0 Bft) 100,00 %
25.10.2020 14:42 12,3 C 11,1 C 10,6 C 96 % 1002,8 hPa 0,0 l/m 0 min 2 min 53 W/m 12,9 km/h (3 Bft) 100,00 %
25.10.2020 14:44 12,3 C 11,1 C 10,6 C 96 % 1002,6 hPa 0,0 l/m 0 min 2 min 63 W/m 6,4 km/h (2 Bft) 100,00 %
25.10.2020 14:46 12,3 C 11,1 C 10,6 C 96 % 1002,5 hPa 0,0 l/m 0 min 2 min 56 W/m 0,0 km/h (0 Bft) 100,00 %
25.10.2020 14:48 12,3 C 11,1 C 10,6 C 96 % 1002,5 hPa 0,0 l/m 0 min 2 min 54 W/m 0,0 km/h (0 Bft) 100,00 %
25.10.2020 14:50 12,3 C 11,1 C 10,6 C 96 % 1002,4 hPa 0,2 l/m 0 min 2 min 52 W/m 0,0 km/h (0 Bft) 100,00 %
25.10.2020 14:52 12,3 C 11,1 C 10,6 C 96 % 1002,6 hPa 0,0 l/m 0 min 2 min 39 W/m 0,0 km/h (0 Bft) 97,92 %
25.10.2020 14:54 12,2 C 10,6 C 10,6 C 96 % 1002,7 hPa 0,0 l/m 0 min 2 min 33 W/m 0,0 km/h (0 Bft) 97,87 %
25.10.2020 14:56 12,2 C 10,6 C 10,6 C 96 % 1002,6 hPa 0,0 l/m 0 min 2 min 37 W/m 0,0 km/h (0 Bft) 97,92 %
25.10.2020 14:58 12,2 C 10,6 C 10,6 C 96 % 1002,6 hPa 0,0 l/m 0 min 2 min 49 W/m 0,0 km/h (0 Bft) 97,87 %
25.10.2020 15:00 12,2 C 10,6 C 10,6 C 96 % 1002,6 hPa 0,0 l/m 0 min 0 min 54 W/m 0,0 km/h (0 Bft) 97,87 %
25.10.2020 15:02 12,2 C 10,6 C 10,6 C 96 % 1002,6 hPa 0,0 l/m 0 min 0 min 50 W/m 6,4 km/h (2 Bft) 97,62 %
25.10.2020 15:04 12,1 C 10,6 C 10,6 C 96 % 1002,6 hPa 0,0 l/m 0 min 0 min 35 W/m 9,7 km/h (2 Bft) 98,08 %
25.10.2020 15:06 12,1 C 10,6 C 10,0 C 96 % 1002,7 hPa 0,0 l/m 0 min 0 min 29 W/m 0,0 km/h (0 Bft) 97,87 %
25.10.2020 15:08 12,1 C 10,6 C 10,0 C 96 % 1002,7 hPa 0,0 l/m 0 min 0 min 28 W/m 0,0 km/h (0 Bft) 97,87 %
25.10.2020 15:10 12,1 C 10,6 C 10,0 C 96 % 1002,6 hPa 0,0 l/m 0 min 0 min 30 W/m 0,0 km/h (0 Bft) 100,00 %
25.10.2020 15:12 12,1 C 10,6 C 10,0 C 96 % 1002,5 hPa 0,0 l/m 0 min 0 min 37 W/m 0,0 km/h (0 Bft) 97,87 %
25.10.2020 15:14 12,0 C 10,6 C 10,0 C 96 % 1002,4 hPa 0,0 l/m 0 min 0 min 36 W/m 0,0 km/h (0 Bft) 97,87 %
25.10.2020 15:16 12,0 C 10,6 C 10,0 C 96 % 1002,4 hPa 0,0 l/m 0 min 0 min 34 W/m 0,0 km/h (0 Bft) 97,92 %
25.10.2020 15:18 12,0 C 10,6 C 10,0 C 96 % 1002,5 hPa 0,0 l/m 0 min 0 min 32 W/m 0,0 km/h (0 Bft) 95,74 %
25.10.2020 15:20 12,0 C 10,6 C 10,0 C 96 % 1002,4 hPa 0,0 l/m 0 min 0 min 36 W/m 0,0 km/h (0 Bft) 97,83 %
25.10.2020 15:22 12,0 C 10,6 C 10,0 C 96 % 1002,3 hPa 0,0 l/m 0 min 0 min 45 W/m 0,0 km/h (0 Bft) 97,87 %
25.10.2020 15:24 12,0 C 10,6 C 10,6 C 96 % 1002,3 hPa 0,0 l/m 0 min 0 min 48 W/m 0,0 km/h (0 Bft) 97,87 %
25.10.2020 15:26 12,0 C 10,6 C 10,6 C 96 % 1002,4 hPa 0,0 l/m 0 min 0 min 47 W/m 0,0 km/h (0 Bft) 97,87 %
25.10.2020 15:28 12,0 C 10,6 C 10,6 C 96 % 1002,3 hPa 0,0 l/m 0 min 0 min 45 W/m 0,0 km/h (0 Bft) 95,74 %
25.10.2020 15:30 12,0 C 10,6 C 10,6 C 96 % 1002,3 hPa 0,0 l/m 0 min 0 min 37 W/m 0,0 km/h (0 Bft) 97,87 %
25.10.2020 15:32 12,0 C 10,6 C 10,6 C 96 % 1002,3 hPa 0,0 l/m 0 min 0 min 27 W/m 0,0 km/h (0 Bft) 97,62 %
25.10.2020 15:34 12,0 C 10,6 C 10,6 C 96 % 1002,3 hPa 0,0 l/m 0 min 0 min 24 W/m 3,2 km/h (1 Bft) 93,75 %
25.10.2020 15:36 12,0 C 10,6 C 10,6 C 96 % 1002,4 hPa 0,0 l/m 0 min 0 min 24 W/m 0,0 km/h (0 Bft) 97,87 %
25.10.2020 15:38 12,0 C 10,6 C 10,6 C 96 % 1002,5 hPa 0,0 l/m 0 min 0 min 23 W/m 0,0 km/h (0 Bft) 95,83 %
25.10.2020 15:40 12,0 C 10,6 C 10,6 C 96 % 1002,5 hPa 0,0 l/m 0 min 0 min 22 W/m 0,0 km/h (0 Bft) 93,62 %
25.10.2020 15:42 12,0 C 10,6 C 10,0 C 96 % 1002,4 hPa 0,0 l/m 0 min 0 min 27 W/m 12,9 km/h (3 Bft) 95,83 %
25.10.2020 15:44 12,0 C 10,6 C 10,6 C 96 % 1002,5 hPa 0,0 l/m 0 min 0 min 31 W/m 3,2 km/h (1 Bft) 95,65 %
25.10.2020 15:46 12,0 C 10,6 C 10,0 C 96 % 1002,5 hPa 0,0 l/m 0 min 0 min 23 W/m 0,0 km/h (0 Bft) 95,74 %
25.10.2020 15:48 12,0 C 10,6 C 10,0 C 96 % 1002,4 hPa 0,0 l/m 0 min 0 min 19 W/m 16,1 km/h (3 Bft) 95,74 %
25.10.2020 15:50 12,0 C 10,6 C 10,0 C 96 % 1002,4 hPa 0,0 l/m 0 min 0 min 16 W/m 0,0 km/h (0 Bft) 95,12 %
25.10.2020 15:52 12,0 C 10,6 C 10,0 C 96 % 1002,5 hPa 0,0 l/m 0 min 0 min 14 W/m 0,0 km/h (0 Bft) 95,74 %
25.10.2020 15:54 11,9 C 10,6 C 10,0 C 96 % 1002,5 hPa 0,0 l/m 0 min 0 min 12 W/m 0,0 km/h (0 Bft) 93,62 %
25.10.2020 15:56 11,9 C 10,6 C 10,0 C 96 % 1002,4 hPa 0,0 l/m 0 min 0 min 12 W/m 0,0 km/h (0 Bft) 95,83 %
25.10.2020 15:58 11,9 C 10,6 C 10,0 C 96 % 1002,2 hPa 0,0 l/m 0 min 0 min 16 W/m 0,0 km/h (0 Bft) 95,74 %
25.10.2020 16:00 11,9 C 10,6 C 10,0 C 96 % 1002,3 hPa 0,0 l/m 0 min 0 min 19 W/m 0,0 km/h (0 Bft) 95,74 %
25.10.2020 16:02 11,9 C 10,6 C 10,0 C 96 % 1002,4 hPa 0,0 l/m 0 min 0 min 19 W/m 0,0 km/h (0 Bft) 95,74 %
25.10.2020 16:04 11,9 C 10,6 C 10,0 C 96 % 1002,3 hPa 0,0 l/m 0 min 0 min 19 W/m 0,0 km/h (0 Bft) 95,74 %
25.10.2020 16:06 11,9 C 10,6 C 10,0 C 96 % 1002,3 hPa 0,0 l/m 0 min 0 min 17 W/m 0,0 km/h (0 Bft) 97,87 %
25.10.2020 16:08 11,9 C 10,6 C 10,0 C 96 % 1002,2 hPa 0,0 l/m 0 min 0 min 14 W/m 0,0 km/h (0 Bft) 93,75 %
25.10.2020 16:10 11,9 C 10,6 C 10,0 C 96 % 1002,2 hPa 0,0 l/m 0 min 0 min 16 W/m 0,0 km/h (0 Bft) 100,00 %
25.10.2020 16:12 11,9 C 10,6 C 10,0 C 96 % 1002,2 hPa 0,0 l/m 0 min 0 min 14 W/m 3,2 km/h (1 Bft) 89,58 %
25.10.2020 16:14 11,9 C 10,6 C 10,0 C 96 % 1002,2 hPa 0,0 l/m 0 min 0 min 12 W/m 0,0 km/h (0 Bft) 95,74 %
25.10.2020 16:16 11,9 C 10,6 C 10,0 C 96 % 1002,2 hPa 0,0 l/m 0 min 0 min 13 W/m 0,0 km/h (0 Bft) 95,74 %
25.10.2020 16:18 11,9 C 10,6 C 10,0 C 96 % 1002,1 hPa 0,0 l/m 0 min 0 min 12 W/m 0,0 km/h (0 Bft) 97,92 %
25.10.2020 16:20 11,9 C 10,6 C 10,0 C 96 % 1002,1 hPa 0,0 l/m 0 min 0 min 11 W/m 0,0 km/h (0 Bft) 97,87 %
25.10.2020 16:22 11,9 C 10,6 C 10,0 C 96 % 1002,1 hPa 0,0 l/m 0 min 0 min 8 W/m 0,0 km/h (0 Bft) 93,48 %
25.10.2020 16:24 11,9 C 10,6 C 10,0 C 96 % 1002,1 hPa 0,0 l/m 0 min 0 min 7 W/m 0,0 km/h (0 Bft) 95,83 %
25.10.2020 16:26 11,9 C 10,6 C 10,0 C 96 % 1002,1 hPa 0,0 l/m 0 min 0 min 6 W/m 0,0 km/h (0 Bft) 97,87 %
25.10.2020 16:28 11,9 C 10,6 C 10,0 C 96 % 1002,2 hPa 0,0 l/m 0 min 0 min 5 W/m 0,0 km/h (0 Bft) 95,74 %
25.10.2020 16:30 11,9 C 10,6 C 10,0 C 96 % 1002,2 hPa 0,0 l/m 0 min 0 min 5 W/m 0,0 km/h (0 Bft) 97,83 %
25.10.2020 16:32 11,9 C 11,1 C 10,0 C 96 % 1002,1 hPa 0,0 l/m 0 min 0 min 6 W/m 0,0 km/h (0 Bft) 97,92 %
25.10.2020 16:34 11,9 C 11,1 C 10,0 C 96 % 1002,0 hPa 0,0 l/m 0 min 0 min 7 W/m 0,0 km/h (0 Bft) 97,87 %
25.10.2020 16:36 11,9 C 11,1 C 10,0 C 96 % 1002,1 hPa 0,0 l/m 0 min 0 min 7 W/m 3,2 km/h (1 Bft) 95,74 %
25.10.2020 16:38 11,9 C 11,1 C 10,6 C 96 % 1002,2 hPa 0,0 l/m 0 min 2 min 6 W/m 0,0 km/h (0 Bft) 97,87 %
25.10.2020 16:40 11,9 C 11,1 C 10,6 C 96 % 1002,2 hPa 0,0 l/m 0 min 0 min 3 W/m 6,4 km/h (2 Bft) 97,37 %
25.10.2020 16:42 11,9 C 10,6 C 10,6 C 96 % 1002,1 hPa 0,0 l/m 0 min 0 min 0 W/m 0,0 km/h (0 Bft) 97,87 %
25.10.2020 16:44 11,9 C 10,6 C 10,0 C 96 % 1002,1 hPa 0,0 l/m 0 min 2 min 0 W/m 3,2 km/h (1 Bft) 98,11 %
25.10.2020 16:46 11,9 C 10,6 C 10,6 C 96 % 1002,1 hPa 0,0 l/m 0 min 2 min 0 W/m 0,0 km/h (0 Bft) 93,62 %
25.10.2020 16:48 11,9 C 10,6 C 10,0 C 96 % 1002,1 hPa 0,0 l/m 0 min 2 min 0 W/m 0,0 km/h (0 Bft) 97,87 %
25.10.2020 16:50 11,9 C 10,6 C 10,0 C 96 % 1002,1 hPa 0,0 l/m 0 min 0 min 0 W/m 0,0 km/h (0 Bft) 97,56 %
25.10.2020 16:52 11,9 C 10,6 C 10,6 C 96 % 1002,1 hPa 0,0 l/m 0 min 0 min 0 W/m 0,0 km/h (0 Bft) 97,87 %
25.10.2020 16:54 11,9 C 10,6 C 10,6 C 96 % 1002,1 hPa 0,0 l/m 0 min 0 min 0 W/m 3,2 km/h (1 Bft) 97,87 %
25.10.2020 16:56 11,9 C 10,6 C 10,0 C 96 % 1002,0 hPa 0,0 l/m 0 min 2 min 0 W/m 3,2 km/h (1 Bft) 97,92 %
25.10.2020 16:58 11,9 C 10,6 C 10,6 C 96 % 1002,0 hPa 0,0 l/m 0 min 2 min 0 W/m 0,0 km/h (0 Bft) 74,47 %
25.10.2020 17:00 11,9 C 10,6 C 10,6 C 96 % 1002,1 hPa 0,0 l/m 0 min 2 min 0 W/m 0,0 km/h (0 Bft) 81,82 %
25.10.2020 17:02 11,9 C 10,6 C 10,6 C 96 % 1002,1 hPa 0,0 l/m 0 min 2 min 0 W/m 0,0 km/h (0 Bft) 100,00 %
25.10.2020 17:04 11,9 C 10,6 C 10,6 C 96 % 1002,2 hPa 0,0 l/m 0 min 2 min 0 W/m 0,0 km/h (0 Bft) 100,00 %
25.10.2020 17:06 11,9 C 10,6 C 10,6 C 96 % 1002,3 hPa 0,0 l/m 0 min 0 min 0 W/m 3,2 km/h (1 Bft) 100,00 %
25.10.2020 17:08 12,0 C 10,6 C 10,6 C 96 % 1002,3 hPa 0,0 l/m 0 min 0 min 0 W/m 0,0 km/h (0 Bft) 100,00 %
25.10.2020 17:10 11,9 C 10,6 C 10,6 C 97 % 1002,4 hPa 0,0 l/m 0 min 0 min 0 W/m 0,0 km/h (0 Bft) 100,00 %
25.10.2020 17:12 11,9 C 10,6 C 10,6 C 97 % 1002,4 hPa 0,0 l/m 0 min 0 min 0 W/m 0,0 km/h (0 Bft) 100,00 %
25.10.2020 17:14 11,9 C 10,6 C 10,6 C 97 % 1002,5 hPa 0,0 l/m 0 min 0 min 0 W/m 0,0 km/h (0 Bft) 100,00 %
25.10.2020 17:16 12,0 C 10,6 C 10,6 C 97 % 1002,5 hPa 0,0 l/m 0 min 0 min 0 W/m 0,0 km/h (0 Bft) 100,00 %
25.10.2020 17:18 12,0 C 10,6 C 10,6 C 97 % 1002,6 hPa 0,0 l/m 0 min 0 min 0 W/m 0,0 km/h (0 Bft) 100,00 %
25.10.2020 17:20 12,0 C 10,6 C 10,6 C 97 % 1002,5 hPa 0,0 l/m 0 min 0 min 0 W/m 0,0 km/h (0 Bft) 100,00 %
25.10.2020 17:22 12,0 C 11,1 C 10,6 C 97 % 1002,6 hPa 0,0 l/m 0 min 0 min 0 W/m 0,0 km/h (0 Bft) 100,00 %
25.10.2020 17:24 12,0 C 11,1 C 10,6 C 97 % 1002,6 hPa 0,0 l/m 0 min 0 min 0 W/m 0,0 km/h (0 Bft) 100,00 %
25.10.2020 17:26 12,0 C 10,6 C 10,6 C 97 % 1002,6 hPa 0,0 l/m 0 min 0 min 0 W/m 0,0 km/h (0 Bft) 100,00 %
25.10.2020 17:28 12,0 C 10,6 C 10,6 C 97 % 1002,8 hPa 0,0 l/m 0 min 0 min 0 W/m 0,0 km/h (0 Bft) 100,00 %
25.10.2020 17:30 12,0 C 11,1 C 10,6 C 97 % 1002,9 hPa 0,0 l/m 0 min 0 min 0 W/m 0,0 km/h (0 Bft) 100,00 %
25.10.2020 17:32 12,0 C 11,1 C 10,6 C 97 % 1002,9 hPa 0,0 l/m 0 min 2 min 0 W/m 0,0 km/h (0 Bft) 97,92 %
25.10.2020 17:34 12,0 C 10,6 C 10,6 C 97 % 1002,9 hPa 0,0 l/m 0 min 0 min 0 W/m 0,0 km/h (0 Bft) 100,00 %
25.10.2020 17:36 12,0 C 11,1 C 10,6 C 97 % 1002,9 hPa 0,0 l/m 0 min 0 min 0 W/m 0,0 km/h (0 Bft) 100,00 %
25.10.2020 17:38 12,0 C 11,1 C 10,6 C 97 % 1002,7 hPa 0,0 l/m 0 min 2 min 0 W/m 0,0 km/h (0 Bft) 100,00 %
25.10.2020 17:40 12,0 C 10,6 C 10,6 C 97 % 1002,6 hPa 0,0 l/m 0 min 2 min 0 W/m 0,0 km/h (0 Bft) 100,00 %
25.10.2020 17:42 12,0 C 10,6 C 10,6 C 97 % 1002,5 hPa 0,2 l/m 0 min 0 min 0 W/m 0,0 km/h (0 Bft) 100,00 %
25.10.2020 17:44 12,0 C 10,6 C 10,6 C 97 % 1002,6 hPa 0,0 l/m 0 min 2 min 0 W/m 0,0 km/h (0 Bft) 100,00 %
25.10.2020 17:46 12,0 C 10,6 C 10,6 C 97 % 1002,5 hPa 0,0 l/m 0 min 2 min 0 W/m 0,0 km/h (0 Bft) 100,00 %
25.10.2020 17:48 12,0 C 10,6 C 10,6 C 97 % 1002,6 hPa 0,0 l/m 0 min 2 min 0 W/m 0,0 km/h (0 Bft) 100,00 %
25.10.2020 17:50 12,0 C 10,6 C 10,6 C 97 % 1002,7 hPa 0,0 l/m 0 min 0 min 0 W/m 0,0 km/h (0 Bft) 100,00 %
25.10.2020 17:52 12,0 C 10,6 C 10,6 C 97 % 1002,6 hPa 0,0 l/m 0 min 2 min 0 W/m 0,0 km/h (0 Bft) 100,00 %
25.10.2020 17:54 12,0 C 10,6 C 10,6 C 97 % 1002,5 hPa 0,0 l/m 0 min 0 min 0 W/m 0,0 km/h (0 Bft) 100,00 %
25.10.2020 17:56 12,0 C 10,6 C 10,6 C 97 % 1002,5 hPa 0,0 l/m 0 min 0 min 0 W/m 0,0 km/h (0 Bft) 97,87 %
25.10.2020 17:58 11,9 C 10,6 C 10,6 C 97 % 1002,5 hPa 0,0 l/m 0 min 0 min 0 W/m 0,0 km/h (0 Bft) 100,00 %
25.10.2020 18:00 11,9 C 10,6 C 10,6 C 97 % 1002,6 hPa 0,0 l/m 0 min 0 min 0 W/m 0,0 km/h (0 Bft) 97,92 %
25.10.2020 18:02 11,9 C 10,6 C 10,6 C 97 % 1002,6 hPa 0,0 l/m 0 min 0 min 0 W/m 0,0 km/h (0 Bft) 100,00 %
25.10.2020 18:04 11,9 C 10,6 C 10,0 C 97 % 1002,7 hPa 0,0 l/m 0 min 0 min 0 W/m 0,0 km/h (0 Bft) 95,65 %
25.10.2020 18:08 11,9 C 10,6 C 10,0 C 97 % 1002,7 hPa 0,0 l/m 0 min 0 min 0 W/m 0,0 km/h (0 Bft) 100,00 %
25.10.2020 18:10 11,9 C 10,6 C 10,0 C 97 % 1002,6 hPa 0,0 l/m 0 min 0 min 0 W/m 0,0 km/h (0 Bft) 100,00 %
25.10.2020 18:12 11,9 C 10,6 C 10,0 C 97 % 1002,5 hPa 0,0 l/m 0 min 0 min 0 W/m 0,0 km/h (0 Bft) 100,00 %
25.10.2020 18:14 11,9 C 10,6 C 10,0 C 97 % 1002,5 hPa 0,0 l/m 0 min 0 min 0 W/m 0,0 km/h (0 Bft) 97,87 %
25.10.2020 18:16 11,9 C 10,6 C 10,0 C 97 % 1002,6 hPa 0,0 l/m 0 min 0 min 0 W/m 0,0 km/h (0 Bft) 95,83 %
25.10.2020 18:18 11,9 C 10,6 C 10,0 C 97 % 1002,6 hPa 0,0 l/m 0 min 0 min 0 W/m 0,0 km/h (0 Bft) 97,92 %
25.10.2020 18:20 11,8 C 10,6 C 10,0 C 97 % 1002,5 hPa 0,0 l/m 0 min 0 min 0 W/m 0,0 km/h (0 Bft) 97,83 %
25.10.2020 18:22 11,8 C 10,6 C 10,0 C 97 % 1002,5 hPa 0,0 l/m 0 min 0 min 0 W/m 0,0 km/h (0 Bft) 97,92 %
25.10.2020 18:24 11,8 C 10,6 C 10,0 C 97 % 1002,5 hPa 0,0 l/m 0 min 0 min 0 W/m 0,0 km/h (0 Bft) 97,87 %
25.10.2020 18:26 11,8 C 10,6 C 10,0 C 97 % 1002,5 hPa 0,0 l/m 0 min 0 min 0 W/m 0,0 km/h (0 Bft) 97,92 %
25.10.2020 18:28 11,8 C 10,6 C 10,0 C 97 % 1002,6 hPa 0,0 l/m 0 min 0 min 0 W/m 0,0 km/h (0 Bft) 95,83 %
25.10.2020 18:30 11,8 C 10,6 C 10,0 C 97 % 1002,5 hPa 0,0 l/m 0 min 0 min 0 W/m 0,0 km/h (0 Bft) 97,87 %
25.10.2020 18:32 11,8 C 10,6 C 10,0 C 97 % 1002,4 hPa 0,0 l/m 0 min 0 min 0 W/m 0,0 km/h (0 Bft) 100,00 %
25.10.2020 18:34 11,8 C 10,6 C 10,0 C 97 % 1002,6 hPa 0,0 l/m 0 min 0 min 0 W/m 0,0 km/h (0 Bft) 97,87 %
25.10.2020 18:36 11,7 C 10,6 C 10,0 C 97 % 1002,7 hPa 0,0 l/m 0 min 0 min 0 W/m 0,0 km/h (0 Bft) 95,74 %
25.10.2020 18:38 11,7 C 10,6 C 10,0 C 97 % 1002,6 hPa 0,0 l/m 0 min 0 min 0 W/m 0,0 km/h (0 Bft) 97,83 %
25.10.2020 18:40 11,7 C 10,6 C 10,0 C 97 % 1002,7 hPa 0,0 l/m 0 min 0 min 0 W/m 0,0 km/h (0 Bft) 93,62 %
25.10.2020 18:42 11,6 C 10,6 C 10,0 C 97 % 1002,9 hPa 0,0 l/m 0 min 0 min 0 W/m 0,0 km/h (0 Bft) 97,87 %
25.10.2020 18:44 11,6 C 10,6 C 10,0 C 97 % 1002,8 hPa 0,0 l/m 0 min 0 min 0 W/m 0,0 km/h (0 Bft) 98,08 %
25.10.2020 18:46 11,6 C 10,6 C 10,0 C 97 % 1002,7 hPa 0,0 l/m 0 min 0 min 0 W/m 0,0 km/h (0 Bft) 95,74 %
25.10.2020 18:48 11,6 C 10,6 C 10,0 C 97 % 1002,9 hPa 0,0 l/m 0 min 0 min 0 W/m 0,0 km/h (0 Bft) 97,14 %
25.10.2020 18:50 11,6 C 10,6 C 10,0 C 97 % 1003,1 hPa 0,0 l/m 0 min 0 min 0 W/m 0,0 km/h (0 Bft) 97,92 %
25.10.2020 18:52 11,6 C 10,6 C 10,0 C 97 % 1002,9 hPa 0,0 l/m 0 min 0 min 0 W/m 0,0 km/h (0 Bft) 97,87 %
25.10.2020 18:54 11,6 C 10,6 C 10,0 C 97 % 1003,0 hPa 0,0 l/m 0 min 0 min 0 W/m 0,0 km/h (0 Bft) 97,87 %
25.10.2020 18:56 11,6 C 10,6 C 10,0 C 97 % 1003,1 hPa 0,0 l/m 0 min 0 min 0 W/m 0,0 km/h (0 Bft) 93,62 %
25.10.2020 18:58 11,6 C 10,6 C 10,0 C 97 % 1003,0 hPa 0,0 l/m 0 min 0 min 0 W/m 0,0 km/h (0 Bft) 97,56 %
25.10.2020 19:00 11,6 C 10,6 C 10,0 C 97 % 1002,8 hPa 0,0 l/m 0 min 0 min 0 W/m 0,0 km/h (0 Bft) 97,87 %
25.10.2020 19:02 11,6 C 10,6 C 10,0 C 97 % 1002,9 hPa 0,0 l/m 0 min 0 min 0 W/m 0,0 km/h (0 Bft) 98,00 %
25.10.2020 19:04 11,5 C 10,6 C 10,0 C 97 % 1002,9 hPa 0,0 l/m 0 min 0 min 0 W/m 3,2 km/h (1 Bft) 97,87 %
25.10.2020 19:06 11,5 C 10,6 C 10,0 C 97 % 1002,8 hPa 0,0 l/m 0 min 0 min 0 W/m 0,0 km/h (0 Bft) 97,87 %
25.10.2020 19:08 11,5 C 10,6 C 10,0 C 97 % 1002,8 hPa 0,0 l/m 0 min 0 min 0 W/m 0,0 km/h (0 Bft) 93,62 %
25.10.2020 19:10 11,5 C 10,6 C 10,0 C 97 % 1002,8 hPa 0,0 l/m 0 min 0 min 0 W/m 0,0 km/h (0 Bft) 97,92 %
25.10.2020 19:12 11,5 C 10,6 C 10,0 C 97 % 1002,8 hPa 0,0 l/m 0 min 0 min 0 W/m 0,0 km/h (0 Bft) 100,00 %
25.10.2020 19:14 11,5 C 10,6 C 10,0 C 97 % 1002,7 hPa 0,0 l/m 0 min 0 min 0 W/m 0,0 km/h (0 Bft) 97,83 %
25.10.2020 19:16 11,5 C 10,6 C 10,0 C 97 % 1002,7 hPa 0,0 l/m 0 min 0 min 0 W/m 0,0 km/h (0 Bft) 93,62 %
25.10.2020 19:18 11,5 C 10,6 C 10,0 C 97 % 1002,7 hPa 0,0 l/m 0 min 0 min 0 W/m 0,0 km/h (0 Bft) 50,00 %
25.10.2020 19:20 11,5 C 10,6 C 10,0 C 97 % 1002,6 hPa 0,0 l/m 0 min 0 min 0 W/m 0,0 km/h (0 Bft) 95,74 %
25.10.2020 19:22 11,5 C 10,6 C 10,0 C 97 % 1002,5 hPa 0,0 l/m 0 min 0 min 0 W/m 0,0 km/h (0 Bft) 95,74 %
25.10.2020 19:24 11,5 C 10,6 C 10,0 C 97 % 1002,6 hPa 0,0 l/m 0 min 0 min 0 W/m 0,0 km/h (0 Bft) 93,62 %
25.10.2020 19:26 11,5 C 10,6 C 10,0 C 97 % 1002,7 hPa 0,0 l/m 0 min 0 min 0 W/m 0,0 km/h (0 Bft) 97,83 %
25.10.2020 19:28 11,5 C 10,6 C 10,0 C 97 % 1002,7 hPa 0,0 l/m 0 min 0 min 0 W/m 0,0 km/h (0 Bft) 95,24 %
25.10.2020 19:30 11,5 C 10,6 C 10,0 C 97 % 1002,7 hPa 0,0 l/m 0 min 0 min 0 W/m 0,0 km/h (0 Bft) 95,83 %
25.10.2020 19:32 11,5 C 10,6 C 10,0 C 97 % 1002,6 hPa 0,0 l/m 0 min 0 min 0 W/m 0,0 km/h (0 Bft) 95,83 %
25.10.2020 19:34 11,4 C 10,6 C 10,0 C 97 % 1002,6 hPa 0,0 l/m 0 min 0 min 0 W/m 0,0 km/h (0 Bft) 95,83 %
25.10.2020 19:36 11,4 C 10,6 C 10,0 C 97 % 1002,5 hPa 0,0 l/m 0 min 0 min 0 W/m 0,0 km/h (0 Bft) 95,83 %
25.10.2020 19:38 11,4 C 10,6 C 10,0 C 97 % 1002,6 hPa 0,0 l/m 0 min 0 min 0 W/m 0,0 km/h (0 Bft) 93,62 %
25.10.2020 19:40 11,4 C 10,6 C 10,0 C 97 % 1002,6 hPa 0,0 l/m 0 min 0 min 0 W/m 0,0 km/h (0 Bft) 93,62 %
25.10.2020 19:42 11,4 C 10,6 C 10,0 C 97 % 1002,5 hPa 0,0 l/m 0 min 0 min 0 W/m 0,0 km/h (0 Bft) 91,49 %
25.10.2020 19:44 11,4 C 10,6 C 10,0 C 97 % 1002,4 hPa 0,0 l/m 0 min 0 min 0 W/m 0,0 km/h (0 Bft) 97,87 %
25.10.2020 19:46 11,4 C 10,6 C 10,0 C 97 % 1002,4 hPa 0,0 l/m 0 min 0 min 0 W/m 0,0 km/h (0 Bft) 97,96 %
25.10.2020 19:48 11,4 C 10,6 C 10,0 C 97 % 1002,3 hPa 0,0 l/m 0 min 0 min 0 W/m 0,0 km/h (0 Bft) 97,87 %
25.10.2020 19:50 11,4 C 10,6 C 10,0 C 97 % 1002,4 hPa 0,0 l/m 0 min 0 min 0 W/m 0,0 km/h (0 Bft) 95,65 %
25.10.2020 19:52 11,4 C 10,6 C 10,0 C 97 % 1002,3 hPa 0,0 l/m 0 min 0 min 0 W/m 0,0 km/h (0 Bft) 97,87 %
25.10.2020 19:54 11,4 C 10,6 C 10,0 C 97 % 1002,3 hPa 0,0 l/m 0 min 0 min 0 W/m 0,0 km/h (0 Bft) 97,87 %
25.10.2020 19:56 11,4 C 10,0 C 10,0 C 97 % 1002,2 hPa 0,0 l/m 0 min 0 min 0 W/m 0,0 km/h (0 Bft) 97,87 %
25.10.2020 19:58 11,3 C 10,0 C 10,0 C 97 % 1002,2 hPa 0,0 l/m 0 min 0 min 0 W/m 0,0 km/h (0 Bft) 97,62 %
25.10.2020 20:00 11,3 C 10,0 C 10,0 C 97 % 1002,2 hPa 0,0 l/m 0 min 0 min 0 W/m 0,0 km/h (0 Bft) 95,83 %
25.10.2020 20:02 11,3 C 10,0 C 9,5 C 97 % 1002,3 hPa 0,0 l/m 0 min 0 min 0 W/m 0,0 km/h (0 Bft) 96,00 %
25.10.2020 20:04 11,3 C 10,0 C 9,5 C 97 % 1002,3 hPa 0,0 l/m 0 min 0 min 0 W/m 0,0 km/h (0 Bft) 97,87 %
25.10.2020 20:06 11,3 C 10,0 C 9,5 C 97 % 1002,3 hPa 0,0 l/m 0 min 0 min 0 W/m 0,0 km/h (0 Bft) 97,87 %
25.10.2020 20:08 11,3 C 10,0 C 9,5 C 97 % 1002,3 hPa 0,0 l/m 0 min 0 min 0 W/m 0,0 km/h (0 Bft) 97,87 %
25.10.2020 20:10 11,3 C 10,0 C 9,5 C 97 % 1002,3 hPa 0,0 l/m 0 min 0 min 0 W/m 0,0 km/h (0 Bft) 97,87 %
25.10.2020 20:12 11,3 C 10,0 C 9,5 C 97 % 1002,4 hPa 0,0 l/m 0 min 0 min 0 W/m 0,0 km/h (0 Bft) 95,74 %
25.10.2020 20:14 11,3 C 10,0 C 9,5 C 97 % 1002,4 hPa 0,0 l/m 0 min 0 min 0 W/m 0,0 km/h (0 Bft) 97,83 %
25.10.2020 20:16 11,2 C 10,0 C 9,5 C 97 % 1002,4 hPa 0,0 l/m 0 min 0 min 0 W/m 0,0 km/h (0 Bft) 97,87 %
25.10.2020 20:18 11,2 C 10,0 C 9,5 C 97 % 1002,6 hPa 0,0 l/m 0 min 0 min 0 W/m 0,0 km/h (0 Bft) 97,87 %
25.10.2020 20:20 11,2 C 10,0 C 9,5 C 97 % 1002,7 hPa 0,0 l/m 0 min 0 min 0 W/m 0,0 km/h (0 Bft) 97,56 %
25.10.2020 20:22 11,1 C 10,0 C 9,5 C 97 % 1002,6 hPa 0,0 l/m 0 min 0 min 0 W/m 0,0 km/h (0 Bft) 97,92 %
25.10.2020 20:24 11,1 C 10,0 C 9,5 C 97 % 1002,6 hPa 0,0 l/m 0 min 0 min 0 W/m 0,0 km/h (0 Bft) 97,87 %
25.10.2020 20:26 11,1 C 10,0 C 9,5 C 97 % 1002,6 hPa 0,0 l/m 0 min 0 min 0 W/m 0,0 km/h (0 Bft) 97,92 %
25.10.2020 20:28 11,1 C 10,0 C 9,5 C 97 % 1002,6 hPa 0,0 l/m 0 min 0 min 0 W/m 0,0 km/h (0 Bft) 95,74 %
25.10.2020 20:30 11,1 C 10,0 C 9,5 C 97 % 1002,6 hPa 0,0 l/m 0 min 0 min 0 W/m 0,0 km/h (0 Bft) 97,92 %
25.10.2020 20:32 11,1 C 10,0 C 9,5 C 97 % 1002,6 hPa 0,0 l/m 0 min 0 min 0 W/m 0,0 km/h (0 Bft) 95,74 %
25.10.2020 20:34 11,1 C 10,0 C 9,5 C 97 % 1002,6 hPa 0,0 l/m 0 min 0 min 0 W/m 0,0 km/h (0 Bft) 97,87 %
25.10.2020 20:36 11,0 C 10,0 C 9,5 C 97 % 1002,6 hPa 0,0 l/m 0 min 0 min 0 W/m 0,0 km/h (0 Bft) 97,87 %
25.10.2020 20:38 11,0 C 10,0 C 9,5 C 97 % 1002,6 hPa 0,0 l/m 0 min 0 min 0 W/m 0,0 km/h (0 Bft) 97,87 %
25.10.2020 20:40 11,0 C 10,0 C 9,5 C 97 % 1002,5 hPa 0,0 l/m 0 min 0 min 0 W/m 0,0 km/h (0 Bft) 97,83 %
25.10.2020 20:42 11,0 C 10,0 C 9,5 C 97 % 1002,5 hPa 0,0 l/m 0 min 0 min 0 W/m 0,0 km/h (0 Bft) 95,74 %
25.10.2020 20:44 11,0 C 10,0 C 9,5 C 97 % 1002,5 hPa 0,0 l/m 0 min 0 min 0 W/m 0,0 km/h (0 Bft) 97,87 %
25.10.2020 20:46 11,0 C 10,0 C 9,5 C 97 % 1002,5 hPa 0,0 l/m 0 min 0 min 0 W/m 0,0 km/h (0 Bft) 97,87 %
25.10.2020 20:48 11,0 C 10,0 C 9,5 C 97 % 1002,5 hPa 0,0 l/m 0 min 0 min 0 W/m 0,0 km/h (0 Bft) 98,11 %
25.10.2020 20:50 11,0 C 10,0 C 9,5 C 97 % 1002,5 hPa 0,0 l/m 0 min 0 min 0 W/m 0,0 km/h (0 Bft) 97,92 %
25.10.2020 20:52 11,0 C 10,0 C 9,5 C 97 % 1002,5 hPa 0,0 l/m 0 min 0 min 0 W/m 0,0 km/h (0 Bft) 97,87 %
25.10.2020 20:54 11,0 C 10,0 C 9,5 C 97 % 1002,4 hPa 0,0 l/m 0 min 0 min 0 W/m 0,0 km/h (0 Bft) 93,62 %
25.10.2020 20:56 10,9 C 10,0 C 9,5 C 97 % 1002,4 hPa 0,0 l/m 0 min 0 min 0 W/m 0,0 km/h (0 Bft) 97,87 %
25.10.2020 20:58 10,9 C 10,0 C 9,5 C 97 % 1002,5 hPa 0,0 l/m 0 min 0 min 0 W/m 0,0 km/h (0 Bft) 95,65 %
25.10.2020 21:00 10,9 C 10,0 C 9,5 C 97 % 1002,5 hPa 0,0 l/m 0 min 0 min 0 W/m 0,0 km/h (0 Bft) 97,87 %
25.10.2020 21:02 10,9 C 10,0 C 9,5 C 97 % 1002,6 hPa 0,0 l/m 0 min 0 min 0 W/m 0,0 km/h (0 Bft) 93,62 %
25.10.2020 21:04 10,9 C 10,0 C 9,5 C 97 % 1002,5 hPa 0,0 l/m 0 min 0 min 0 W/m 0,0 km/h (0 Bft) 95,74 %
25.10.2020 21:06 10,9 C 10,0 C 9,5 C 97 % 1002,5 hPa 0,0 l/m 0 min 0 min 0 W/m 0,0 km/h (0 Bft) 97,87 %
25.10.2020 21:08 10,9 C 10,0 C 9,5 C 97 % 1002,4 hPa 0,0 l/m 0 min 0 min 0 W/m 0,0 km/h (0 Bft) 97,87 %
25.10.2020 21:10 10,9 C 10,0 C 9,5 C 97 % 1002,4 hPa 0,0 l/m 0 min 0 min 0 W/m 0,0 km/h (0 Bft) 97,83 %
25.10.2020 21:12 10,9 C 10,0 C 9,5 C 97 % 1002,5 hPa 0,0 l/m 0 min 0 min 0 W/m 0,0 km/h (0 Bft) 93,62 %
25.10.2020 21:14 10,9 C 10,0 C 9,5 C 97 % 1002,5 hPa 0,0 l/m 0 min 0 min 0 W/m 0,0 km/h (0 Bft) 97,87 %
25.10.2020 21:16 10,8 C 10,0 C 9,5 C 97 % 1002,5 hPa 0,0 l/m 0 min 0 min 0 W/m 0,0 km/h (0 Bft) 95,74 %
25.10.2020 21:18 10,8 C 10,0 C 9,5 C 97 % 1002,4 hPa 0,0 l/m 0 min 0 min 0 W/m 0,0 km/h (0 Bft) 97,87 %
25.10.2020 21:20 10,8 C 10,0 C 9,5 C 97 % 1002,5 hPa 0,0 l/m 0 min 0 min 0 W/m 0,0 km/h (0 Bft) 97,83 %
25.10.2020 21:22 10,8 C 9,4 C 9,5 C 97 % 1002,5 hPa 0,0 l/m 0 min 0 min 0 W/m 0,0 km/h (0 Bft) 65,96 %
25.10.2020 21:24 10,8 C 10,0 C 9,5 C 97 % 1002,4 hPa 0,0 l/m 0 min 0 min 0 W/m 0,0 km/h (0 Bft) 88,10 %
25.10.2020 21:26 10,8 C 10,0 C 9,5 C 97 % 1002,4 hPa 0,0 l/m 0 min 0 min 0 W/m 0,0 km/h (0 Bft) 100,00 %
25.10.2020 21:28 10,8 C 10,0 C 9,5 C 97 % 1002,4 hPa 0,0 l/m 0 min 0 min 0 W/m 0,0 km/h (0 Bft) 97,87 %
25.10.2020 21:30 10,8 C 10,0 C 9,5 C 97 % 1002,4 hPa 0,0 l/m 0 min 0 min 0 W/m 0,0 km/h (0 Bft) 100,00 %
25.10.2020 21:32 10,8 C 10,0 C 9,5 C 97 % 1002,3 hPa 0,0 l/m 0 min 0 min 0 W/m 0,0 km/h (0 Bft) 100,00 %
25.10.2020 21:34 10,8 C 9,4 C 9,5 C 97 % 1002,4 hPa 0,0 l/m 0 min 0 min 0 W/m 0,0 km/h (0 Bft) 100,00 %
25.10.2020 21:36 10,8 C 9,4 C 9,5 C 97 % 1002,3 hPa 0,0 l/m 0 min 0 min 0 W/m 0,0 km/h (0 Bft) 100,00 %
25.10.2020 21:38 10,8 C 9,4 C 9,5 C 97 % 1002,3 hPa 0,0 l/m 0 min 0 min 0 W/m 0,0 km/h (0 Bft) 97,87 %
25.10.2020 21:40 10,8 C 9,4 C 9,5 C 97 % 1002,2 hPa 0,0 l/m 0 min 0 min 0 W/m 0,0 km/h (0 Bft) 100,00 %
25.10.2020 21:42 10,8 C 9,4 C 9,5 C 97 % 1002,2 hPa 0,0 l/m 0 min 0 min 0 W/m 0,0 km/h (0 Bft) 100,00 %
25.10.2020 21:44 10,8 C 9,4 C 9,5 C 97 % 1002,2 hPa 0,0 l/m 0 min 0 min 0 W/m 0,0 km/h (0 Bft) 100,00 %
25.10.2020 21:46 10,7 C 9,4 C 9,5 C 97 % 1002,2 hPa 0,0 l/m 0 min 0 min 0 W/m 0,0 km/h (0 Bft) 97,87 %
25.10.2020 21:48 10,7 C 9,4 C 8,9 C 97 % 1002,2 hPa 0,0 l/m 0 min 0 min 0 W/m 0,0 km/h (0 Bft) 97,87 %
25.10.2020 21:50 10,7 C 9,4 C 8,9 C 97 % 1002,2 hPa 0,0 l/m 0 min 0 min 0 W/m 0,0 km/h (0 Bft) 98,00 %
25.10.2020 21:52 10,7 C 9,4 C 8,9 C 97 % 1002,2 hPa 0,0 l/m 0 min 0 min 0 W/m 0,0 km/h (0 Bft) 97,14 %
25.10.2020 21:54 10,6 C 9,4 C 8,9 C 97 % 1002,2 hPa 0,0 l/m 0 min 0 min 0 W/m 0,0 km/h (0 Bft) 97,87 %
25.10.2020 21:56 10,6 C 9,4 C 8,9 C 97 % 1002,1 hPa 0,0 l/m 0 min 0 min 0 W/m 0,0 km/h (0 Bft) 97,87 %
25.10.2020 21:58 10,6 C 9,4 C 8,9 C 97 % 1002,1 hPa 0,0 l/m 0 min 0 min 0 W/m 0,0 km/h (0 Bft) 97,83 %
25.10.2020 22:00 10,6 C 9,4 C 8,9 C 97 % 1002,2 hPa 0,0 l/m 0 min 0 min 0 W/m 0,0 km/h (0 Bft) 95,74 %
25.10.2020 22:02 10,6 C 9,4 C 8,9 C 97 % 1002,2 hPa 0,0 l/m 0 min 0 min 0 W/m 0,0 km/h (0 Bft) 97,87 %
25.10.2020 22:04 10,6 C 9,4 C 8,9 C 97 % 1002,1 hPa 0,0 l/m 0 min 0 min 0 W/m 0,0 km/h (0 Bft) 97,87 %
25.10.2020 22:06 10,6 C 9,4 C 8,9 C 97 % 1002,1 hPa 0,0 l/m 0 min 0 min 0 W/m 0,0 km/h (0 Bft) 97,87 %
25.10.2020 22:08 10,6 C 9,4 C 8,9 C 97 % 1002,1 hPa 0,0 l/m 0 min 0 min 0 W/m 0,0 km/h (0 Bft) 98,28 %
25.10.2020 22:10 10,6 C 9,4 C 8,9 C 97 % 1002,1 hPa 0,0 l/m 0 min 0 min 0 W/m 0,0 km/h (0 Bft) 97,14 %
25.10.2020 22:12 10,6 C 9,4 C 8,9 C 97 % 1002,2 hPa 0,0 l/m 0 min 0 min 0 W/m 0,0 km/h (0 Bft) 95,74 %
25.10.2020 22:14 10,5 C 9,4 C 8,9 C 97 % 1002,2 hPa 0,0 l/m 0 min 0 min 0 W/m 0,0 km/h (0 Bft) 97,87 %
25.10.2020 22:16 10,5 C 9,4 C 8,9 C 97 % 1002,2 hPa 0,0 l/m 0 min 0 min 0 W/m 0,0 km/h (0 Bft) 93,62 %
25.10.2020 22:18 10,5 C 9,4 C 8,9 C 97 % 1002,2 hPa 0,0 l/m 0 min 0 min 0 W/m 0,0 km/h (0 Bft) 95,83 %
25.10.2020 22:20 10,5 C 9,4 C 8,9 C 97 % 1002,2 hPa 0,0 l/m 0 min 0 min 0 W/m 0,0 km/h (0 Bft) 97,87 %
25.10.2020 22:22 10,5 C 9,4 C 8,9 C 97 % 1002,2 hPa 0,0 l/m 0 min 0 min 0 W/m 0,0 km/h (0 Bft) 97,83 %
25.10.2020 22:24 10,5 C 9,4 C 8,9 C 96 % 1002,2 hPa 0,0 l/m 0 min 0 min 0 W/m 0,0 km/h (0 Bft) 95,74 %
25.10.2020 22:26 10,5 C 9,4 C 8,9 C 96 % 1002,2 hPa 0,0 l/m 0 min 0 min 0 W/m 0,0 km/h (0 Bft) 97,87 %
25.10.2020 22:28 10,4 C 9,4 C 8,9 C 96 % 1002,2 hPa 0,0 l/m 0 min 0 min 0 W/m 0,0 km/h (0 Bft) 97,87 %
25.10.2020 22:30 10,4 C 9,4 C 8,9 C 96 % 1002,1 hPa 0,0 l/m 0 min 0 min 0 W/m 0,0 km/h (0 Bft) 97,87 %
25.10.2020 22:32 10,4 C 9,4 C 8,9 C 96 % 1002,2 hPa 0,0 l/m 0 min 0 min 0 W/m 0,0 km/h (0 Bft) 95,65 %
25.10.2020 22:34 10,4 C 9,4 C 8,9 C 96 % 1002,3 hPa 0,0 l/m 0 min 0 min 0 W/m 0,0 km/h (0 Bft) 97,87 %
25.10.2020 22:36 10,4 C 9,4 C 8,9 C 96 % 1002,3 hPa 0,0 l/m 0 min 0 min 0 W/m 0,0 km/h (0 Bft) 97,87 %
25.10.2020 22:38 10,4 C 9,4 C 8,9 C 96 % 1002,2 hPa 0,0 l/m 0 min 0 min 0 W/m 0,0 km/h (0 Bft) 100,00 %
25.10.2020 22:40 10,3 C 9,4 C 8,9 C 96 % 1002,2 hPa 0,0 l/m 0 min 0 min 0 W/m 0,0 km/h (0 Bft) 100,00 %
25.10.2020 22:42 10,3 C 9,4 C 8,9 C 96 % 1002,3 hPa 0,0 l/m 0 min 0 min 0 W/m 0,0 km/h (0 Bft) 100,00 %
25.10.2020 22:44 10,3 C 9,4 C 8,9 C 96 % 1002,3 hPa 0,0 l/m 0 min 0 min 0 W/m 0,0 km/h (0 Bft) 97,83 %
25.10.2020 22:46 10,3 C 9,4 C 8,9 C 96 % 1002,2 hPa 0,0 l/m 0 min 0 min 0 W/m 0,0 km/h (0 Bft) 100,00 %
25.10.2020 22:48 10,3 C 9,4 C 8,9 C 96 % 1002,2 hPa 0,0 l/m 0 min 0 min 0 W/m 0,0 km/h (0 Bft) 97,87 %
25.10.2020 22:50 10,3 C 9,4 C 8,9 C 96 % 1002,2 hPa 0,0 l/m 0 min 0 min 0 W/m 0,0 km/h (0 Bft) 97,87 %
25.10.2020 22:52 10,3 C 9,4 C 8,9 C 96 % 1002,1 hPa 0,0 l/m 0 min 0 min 0 W/m 0,0 km/h (0 Bft) 97,87 %
25.10.2020 22:54 10,3 C 9,4 C 8,9 C 96 % 1002,1 hPa 0,0 l/m 0 min 0 min 0 W/m 0,0 km/h (0 Bft) 100,00 %
25.10.2020 22:56 10,2 C 9,4 C 8,9 C 96 % 1002,3 hPa 0,0 l/m 0 min 0 min 0 W/m 6,4 km/h (2 Bft) 100,00 %
25.10.2020 22:58 10,2 C 9,4 C 8,9 C 96 % 1002,3 hPa 0,0 l/m 0 min 0 min 0 W/m 12,9 km/h (3 Bft) 100,00 %
25.10.2020 23:00 10,2 C 9,4 C 8,9 C 96 % 1002,3 hPa 0,0 l/m 0 min 0 min 0 W/m 9,7 km/h (2 Bft) 97,87 %
25.10.2020 23:02 10,2 C 9,4 C 8,9 C 96 % 1002,4 hPa 0,0 l/m 0 min 0 min 0 W/m 0,0 km/h (0 Bft) 97,87 %
25.10.2020 23:04 10,2 C 9,4 C 8,9 C 96 % 1002,3 hPa 0,0 l/m 0 min 0 min 0 W/m 0,0 km/h (0 Bft) 100,00 %
25.10.2020 23:06 10,2 C 9,4 C 8,9 C 96 % 1002,2 hPa 0,0 l/m 0 min 0 min 0 W/m 0,0 km/h (0 Bft) 100,00 %
25.10.2020 23:08 10,2 C 9,4 C 8,9 C 96 % 1002,2 hPa 0,0 l/m 0 min 0 min 0 W/m 3,2 km/h (1 Bft) 97,83 %
25.10.2020 23:10 10,2 C 9,4 C 8,9 C 96 % 1002,2 hPa 0,0 l/m 0 min 0 min 0 W/m 0,0 km/h (0 Bft) 100,00 %
25.10.2020 23:12 10,2 C 8,9 C 8,9 C 96 % 1002,1 hPa 0,0 l/m 0 min 0 min 0 W/m 0,0 km/h (0 Bft) 95,74 %
25.10.2020 23:14 10,2 C 9,4 C 8,9 C 96 % 1002,1 hPa 0,0 l/m 0 min 0 min 0 W/m 0,0 km/h (0 Bft) 97,87 %
25.10.2020 23:16 10,2 C 9,4 C 8,4 C 96 % 1002,2 hPa 0,0 l/m 0 min 0 min 0 W/m 0,0 km/h (0 Bft) 97,87 %
25.10.2020 23:18 10,2 C 8,9 C 8,4 C 96 % 1002,2 hPa 0,0 l/m 0 min 0 min 0 W/m 0,0 km/h (0 Bft) 97,87 %
25.10.2020 23:20 10,1 C 8,9 C 8,4 C 96 % 1002,1 hPa 0,0 l/m 0 min 0 min 0 W/m 0,0 km/h (0 Bft) 97,87 %
25.10.2020 23:22 10,1 C 8,9 C 8,4 C 96 % 1002,1 hPa 0,0 l/m 0 min 0 min 0 W/m 0,0 km/h (0 Bft) 93,62 %
25.10.2020 23:24 10,1 C 8,9 C 8,4 C 96 % 1002,0 hPa 0,0 l/m 0 min 0 min 0 W/m 0,0 km/h (0 Bft) 97,87 %
25.10.2020 23:26 10,1 C 8,9 C 8,4 C 96 % 1001,9 hPa 0,0 l/m 0 min 0 min 0 W/m 0,0 km/h (0 Bft) 97,87 %
25.10.2020 23:28 10,1 C 8,9 C 8,4 C 96 % 1001,9 hPa 0,0 l/m 0 min 0 min 0 W/m 0,0 km/h (0 Bft) 97,87 %
25.10.2020 23:30 10,1 C 8,9 C 8,4 C 96 % 1002,0 hPa 0,0 l/m 0 min 0 min 0 W/m 0,0 km/h (0 Bft) 97,83 %
25.10.2020 23:32 10,1 C 8,9 C 8,4 C 96 % 1001,9 hPa 0,0 l/m 0 min 0 min 0 W/m 0,0 km/h (0 Bft) 95,74 %
25.10.2020 23:34 10,1 C 8,9 C 8,4 C 96 % 1002,0 hPa 0,0 l/m 0 min 0 min 0 W/m 0,0 km/h (0 Bft) 97,87 %
25.10.2020 23:36 10,0 C 8,9 C 8,4 C 96 % 1002,1 hPa 0,0 l/m 0 min 0 min 0 W/m 0,0 km/h (0 Bft) 95,74 %
25.10.2020 23:38 10,0 C 8,9 C 8,4 C 96 % 1002,1 hPa 0,0 l/m 0 min 0 min 0 W/m 0,0 km/h (0 Bft) 97,87 %
25.10.2020 23:40 10,0 C 8,9 C 8,4 C 96 % 1002,0 hPa 0,0 l/m 0 min 0 min 0 W/m 0,0 km/h (0 Bft) 97,87 %
25.10.2020 23:42 10,0 C 8,9 C 8,4 C 96 % 1002,0 hPa 0,0 l/m 0 min 0 min 0 W/m 0,0 km/h (0 Bft) 97,83 %
25.10.2020 23:44 10,0 C 8,9 C 8,4 C 96 % 1002,0 hPa 0,0 l/m 0 min 0 min 0 W/m 0,0 km/h (0 Bft) 97,87 %
25.10.2020 23:46 10,0 C 8,9 C 8,4 C 96 % 1002,1 hPa 0,0 l/m 0 min 0 min 0 W/m 0,0 km/h (0 Bft) 97,87 %
25.10.2020 23:48 9,9 C 8,9 C 8,4 C 96 % 1002,1 hPa 0,0 l/m 0 min 0 min 0 W/m 0,0 km/h (0 Bft) 95,74 %
25.10.2020 23:50 9,9 C 8,9 C 8,4 C 96 % 1002,2 hPa 0,0 l/m 0 min 0 min 0 W/m 0,0 km/h (0 Bft) 95,74 %
25.10.2020 23:52 9,9 C 8,9 C 8,4 C 96 % 1002,1 hPa 0,0 l/m 0 min 0 min 0 W/m 0,0 km/h (0 Bft) 95,83 %
25.10.2020 23:54 9,9 C 8,9 C 8,4 C 96 % 1002,1 hPa 0,0 l/m 0 min 0 min 0 W/m 0,0 km/h (0 Bft) 97,87 %
25.10.2020 23:56 9,9 C 8,9 C 8,4 C 96 % 1002,0 hPa 0,0 l/m 0 min 0 min 0 W/m 0,0 km/h (0 Bft) 97,83 %
25.10.2020 23:58 9,9 C 8,9 C 8,4 C 96 % 1002,0 hPa 0,0 l/m 0 min 0 min 0 W/m 0,0 km/h (0 Bft) 100,00 %
_ Min-Zeit 23:48 23:12 23:16 01:40 23:26 - - - - 00:20 19:18
Minimum _ 9,9 C 8,9 C 8,4 C 83 % 1001,9 hPa - - - - 0,0 km/h (0 Bft) 50,00 %
_ Max-Zeit 01:50 01:12 01:12 12:54 00:00 10:42 00:00 12:08 12:46 01:36 00:04
Maximum _ 15,5 C 15,0 C 13,9 C 97 % 1007,5 hPa 0,2 l/m 0 min 4 min 179 W/m 45,1 km/h
S (6 Bft)
100,00 %
Durchschnitt _ 13,0 C 12,0 C 11,2 C 91 % 1003,5 hPa #5,2 l/m #0 min. #4:48 h 42 W/m 8,7 km/h (2 Bft) 97,38 %
© 2020 W. Hausmann